UAL989 KEWR-OKKK

Flight info

Callsign UAL989
Flight time N/A
Altitude 29000
Route MERIT DCT HFD DCT PUT DCT FRILL DCT KANNI/M084F290 N37E LOMPI DCT RAFIN DCT 45N050W 44N040W/M084F310 42N030W 41N020W DCT DETOX/N0489F310 DCT PARAV DCT BARDI/N0488F330 DCT RIDAV DCT DIPOL DCT NVS DCT NANDO DCT FENXE DCT MABUX DCT RETBA/N0492F320 T257 LASPO/N0490F330 DCT LUXUR UM134 ANB UA411 MORJA UM978 SONAK DCT DINUX DCT ASDAX DCT AGARI DCT EMLAR DCT INKOP DCT DEMAG UM978 EBOKA DCT OTREX UM978 AMAXI/N0485F350 DCT GUDIS UM1 KAVOS DCT EVORA DCT LAKTO L560 SERMA L550 KARIK B411 DEESA Y415 LOTOK A788 SOROR
Aircraft B77W/H-SDE1E2E3FGHIJ2J3J4J5M1RWXY/LB1D1

Departure

Time 2026-04-20 03:48
Airport Newark Liberty International Airport (KEWR)

Arrival

Time N/A
Airport Kuwait International Airport (OKKK)
Time Latitude Longitude Altitude Speed Heading
2026-04-20 02:22 40.69685 -74.17681 11 ft 0 kts 165°
2026-04-20 03:05 40.69700 -74.17687 25 ft 3 kts 165°
2026-04-20 03:05 40.69718 -74.17693 26 ft 3 kts 165°
2026-04-20 03:05 40.69736 -74.17699 25 ft 3 kts 165°
2026-04-20 03:06 40.69754 -74.17705 25 ft 3 kts 165°
2026-04-20 03:06 40.69766 -74.17709 25 ft 3 kts 165°
2026-04-20 03:06 40.69784 -74.17715 25 ft 3 kts 165°
2026-04-20 03:06 40.69801 -74.17721 25 ft 3 kts 165°
2026-04-20 03:07 40.69802 -74.17722 25 ft 0 kts 165°
2026-04-20 03:13 40.69797 -74.17715 27 ft 1 kts 135°
2026-04-20 03:13 40.69796 -74.17696 27 ft 3 kts 89°
2026-04-20 03:13 40.69813 -74.17667 27 ft 4 kts 43°
2026-04-20 03:13 40.69835 -74.17641 27 ft 4 kts 42°
2026-04-20 03:14 40.69858 -74.17615 26 ft 4 kts 40°
2026-04-20 03:14 40.69880 -74.17588 27 ft 4 kts 46°
2026-04-20 03:14 40.69892 -74.17553 27 ft 4 kts 76°
2026-04-20 03:14 40.69894 -74.17513 27 ft 4 kts 92°
2026-04-20 03:15 40.69889 -74.17474 27 ft 4 kts 101°
2026-04-20 03:15 40.69881 -74.17436 27 ft 4 kts 108°
2026-04-20 03:15 40.69869 -74.17399 27 ft 4 kts 116°
2026-04-20 03:15 40.69853 -74.17366 27 ft 4 kts 125°
2026-04-20 03:16 40.69835 -74.17335 27 ft 4 kts 129°
2026-04-20 03:16 40.69816 -74.17304 27 ft 4 kts 130°
2026-04-20 03:16 40.69795 -74.17275 27 ft 4 kts 134°
2026-04-20 03:16 40.69774 -74.17247 27 ft 4 kts 135°
2026-04-20 03:17 40.69751 -74.17219 27 ft 5 kts 139°
2026-04-20 03:17 40.69723 -74.17191 27 ft 5 kts 143°
2026-04-20 03:17 40.69694 -74.17165 27 ft 5 kts 148°
2026-04-20 03:17 40.69663 -74.17143 27 ft 5 kts 152°
2026-04-20 03:18 40.69632 -74.17124 27 ft 5 kts 157°
2026-04-20 03:18 40.69599 -74.17108 27 ft 5 kts 162°
2026-04-20 03:18 40.69566 -74.17095 27 ft 5 kts 163°
2026-04-20 03:18 40.69532 -74.17083 27 ft 5 kts 166°
2026-04-20 03:19 40.69497 -74.17074 27 ft 5 kts 171°
2026-04-20 03:19 40.69463 -74.17069 27 ft 5 kts 175°
2026-04-20 03:19 40.69428 -74.17067 27 ft 5 kts 177°
2026-04-20 03:19 40.69393 -74.17066 27 ft 5 kts 181°
2026-04-20 03:20 40.69359 -74.17072 27 ft 5 kts 194°
2026-04-20 03:20 40.69326 -74.17090 27 ft 5 kts 200°
2026-04-20 03:20 40.69293 -74.17106 27 ft 5 kts 203°
2026-04-20 03:20 40.69261 -74.17127 27 ft 5 kts 207°
2026-04-20 03:21 40.69229 -74.17149 27 ft 5 kts 208°
2026-04-20 03:21 40.69198 -74.17171 27 ft 5 kts 208°
2026-04-20 03:21 40.69166 -74.17192 27 ft 5 kts 206°
2026-04-20 03:21 40.69134 -74.17212 26 ft 5 kts 205°
2026-04-20 03:22 40.69101 -74.17231 26 ft 5 kts 203°
2026-04-20 03:22 40.69068 -74.17251 26 ft 5 kts 205°
2026-04-20 03:22 40.69036 -74.17272 27 ft 5 kts 207°
2026-04-20 03:22 40.69004 -74.17293 27 ft 5 kts 207°
2026-04-20 03:23 40.68973 -74.17314 27 ft 5 kts 206°
2026-04-20 03:23 40.68940 -74.17335 27 ft 5 kts 206°
2026-04-20 03:23 40.68908 -74.17355 27 ft 5 kts 206°
2026-04-20 03:23 40.68876 -74.17376 27 ft 5 kts 206°
2026-04-20 03:24 40.68844 -74.17396 27 ft 5 kts 206°
2026-04-20 03:24 40.68812 -74.17417 27 ft 5 kts 206°
2026-04-20 03:24 40.68780 -74.17437 27 ft 5 kts 206°
2026-04-20 03:24 40.68747 -74.17458 27 ft 5 kts 206°
2026-04-20 03:25 40.68715 -74.17478 27 ft 5 kts 206°
2026-04-20 03:25 40.68683 -74.17498 27 ft 5 kts 205°
2026-04-20 03:25 40.68651 -74.17519 27 ft 5 kts 205°
2026-04-20 03:25 40.68619 -74.17539 27 ft 5 kts 205°
2026-04-20 03:26 40.68586 -74.17559 27 ft 5 kts 205°
2026-04-20 03:26 40.68554 -74.17580 27 ft 5 kts 205°
2026-04-20 03:26 40.68522 -74.17600 27 ft 5 kts 205°
2026-04-20 03:26 40.68490 -74.17620 27 ft 5 kts 205°
2026-04-20 03:27 40.68457 -74.17640 27 ft 5 kts 205°
2026-04-20 03:27 40.68425 -74.17661 27 ft 5 kts 206°
2026-04-20 03:27 40.68393 -74.17682 27 ft 5 kts 206°
2026-04-20 03:27 40.68361 -74.17703 27 ft 5 kts 206°
2026-04-20 03:28 40.68330 -74.17723 27 ft 5 kts 206°
2026-04-20 03:28 40.68297 -74.17744 27 ft 5 kts 206°
2026-04-20 03:28 40.68234 -74.17785 27 ft 5 kts 206°
2026-04-20 03:29 40.68201 -74.17806 27 ft 5 kts 205°
2026-04-20 03:29 40.68169 -74.17826 27 ft 5 kts 205°
2026-04-20 03:29 40.68137 -74.17846 27 ft 5 kts 205°
2026-04-20 03:29 40.68104 -74.17866 27 ft 5 kts 205°
2026-04-20 03:30 40.68072 -74.17886 27 ft 5 kts 205°
2026-04-20 03:30 40.68040 -74.17906 27 ft 5 kts 206°
2026-04-20 03:30 40.68008 -74.17926 27 ft 5 kts 206°
2026-04-20 03:30 40.67976 -74.17947 27 ft 5 kts 206°
2026-04-20 03:31 40.67944 -74.17968 27 ft 5 kts 206°
2026-04-20 03:31 40.67912 -74.17989 27 ft 5 kts 206°
2026-04-20 03:31 40.67880 -74.18009 27 ft 5 kts 206°
2026-04-20 03:31 40.67847 -74.18030 27 ft 5 kts 206°
2026-04-20 03:32 40.67815 -74.18050 26 ft 5 kts 206°
2026-04-20 03:32 40.67783 -74.18071 27 ft 5 kts 206°
2026-04-20 03:32 40.67751 -74.18091 27 ft 5 kts 206°
2026-04-20 03:32 40.67719 -74.18111 26 ft 5 kts 206°
2026-04-20 03:33 40.67706 -74.18120 27 ft 0 kts 205°
2026-04-20 03:33 40.67703 -74.18122 27 ft 2 kts 205°
2026-04-20 03:33 40.67691 -74.18129 27 ft 2 kts 205°
2026-04-20 03:33 40.67679 -74.18133 27 ft 2 kts 185°
2026-04-20 03:34 40.67665 -74.18125 27 ft 2 kts 151°
2026-04-20 03:34 40.67650 -74.18114 27 ft 2 kts 153°
2026-04-20 03:34 40.67637 -74.18102 27 ft 2 kts 142°
2026-04-20 03:34 40.67625 -74.18087 27 ft 2 kts 134°
2026-04-20 03:35 40.67621 -74.18080 27 ft 0 kts 128°
2026-04-20 03:41 40.67612 -74.18065 27 ft 3 kts 128°
2026-04-20 03:42 40.67597 -74.18041 27 ft 3 kts 128°
2026-04-20 03:42 40.67583 -74.18017 27 ft 3 kts 126°
2026-04-20 03:42 40.67571 -74.17991 27 ft 3 kts 118°
2026-04-20 03:42 40.67561 -74.17963 27 ft 3 kts 108°
2026-04-20 03:43 40.67574 -74.17936 27 ft 4 kts 48°
2026-04-20 03:43 40.67593 -74.17915 27 ft 4 kts 36°
2026-04-20 03:43 40.67615 -74.17898 27 ft 4 kts 28°
2026-04-20 03:43 40.67618 -74.17896 27 ft 0 kts 27°
2026-04-20 03:47 40.67626 -74.17890 27 ft 8 kts 27°
2026-04-20 03:47 40.67839 -74.17754 31 ft 71 kts 26°
2026-04-20 03:48 40.68529 -74.17316 29 ft 147 kts 26°
2026-04-20 03:48 40.69669 -74.16597 42 ft 210 kts 25°
2026-04-20 03:48 40.70955 -74.15765 1003 ft 200 kts 26°
2026-04-20 03:48 40.72239 -74.14936 1923 ft 208 kts 22°
2026-04-20 03:49 40.73581 -74.14096 2837 ft 220 kts 21°
2026-04-20 03:49 40.75006 -74.13209 3399 ft 232 kts 21°
2026-04-20 03:49 40.76502 -74.12273 3751 ft 241 kts 20°
2026-04-20 03:49 40.78059 -74.11293 3972 ft 258 kts 21°
2026-04-20 03:50 40.79697 -74.10180 4219 ft 272 kts 31°
2026-04-20 03:50 40.81046 -74.08355 4634 ft 284 kts 49°
2026-04-20 03:50 40.82235 -74.06217 5133 ft 291 kts 49°
2026-04-20 03:50 40.83431 -74.04054 5794 ft 292 kts 49°
2026-04-20 03:51 40.84633 -74.01872 6381 ft 297 kts 49°
2026-04-20 03:51 40.85872 -73.99666 6908 ft 300 kts 47°
2026-04-20 03:51 40.87162 -73.97486 7481 ft 302 kts 45°
2026-04-20 03:51 40.88501 -73.95330 8048 ft 306 kts 45°
2026-04-20 03:52 40.89849 -73.93133 8573 ft 308 kts 45°
2026-04-20 03:52 40.91202 -73.90939 9206 ft 309 kts 44°
2026-04-20 03:52 40.92572 -73.88715 9664 ft 315 kts 45°
2026-04-20 03:52 40.93967 -73.86457 10165 ft 318 kts 45°
2026-04-20 03:53 40.95397 -73.84150 10384 ft 332 kts 45°
2026-04-20 03:53 40.96383 -73.82568 10553 ft 341 kts 45°
2026-04-20 03:53 40.97940 -73.80069 10678 ft 359 kts 45°
2026-04-20 03:53 40.99554 -73.77465 10954 ft 373 kts 45°
2026-04-20 03:54 41.01224 -73.74769 11344 ft 383 kts 46°
2026-04-20 03:54 41.02928 -73.71999 11728 ft 393 kts 46°
2026-04-20 03:54 41.04670 -73.69148 12173 ft 402 kts 46°
2026-04-20 03:54 41.06445 -73.66227 12566 ft 413 kts 46°
2026-04-20 03:55 41.08253 -73.63257 13223 ft 415 kts 46°
2026-04-20 03:55 41.10072 -73.60250 13780 ft 420 kts 46°
2026-04-20 03:55 41.11908 -73.57231 14374 ft 423 kts 47°
2026-04-20 03:55 41.13777 -73.54155 14727 ft 433 kts 47°
2026-04-20 03:56 41.15682 -73.51009 15098 ft 442 kts 47°
2026-04-20 03:56 41.17597 -73.47842 15462 ft 450 kts 48°
2026-04-20 03:56 41.19573 -73.44573 15872 ft 457 kts 48°
2026-04-20 03:56 41.21578 -73.41259 16308 ft 464 kts 49°
2026-04-20 03:57 41.23642 -73.37847 16742 ft 471 kts 49°
2026-04-20 03:57 41.25684 -73.34470 17142 ft 478 kts 49°
2026-04-20 03:57 41.27783 -73.30999 17550 ft 486 kts 50°
2026-04-20 03:57 41.29914 -73.27469 17948 ft 493 kts 50°
2026-04-20 03:58 41.32076 -73.23882 18341 ft 500 kts 51°
2026-04-20 03:58 41.34264 -73.20249 18697 ft 507 kts 51°
2026-04-20 03:58 41.36477 -73.16572 19110 ft 511 kts 51°
2026-04-20 03:58 41.38632 -73.12790 19542 ft 514 kts 56°
2026-04-20 03:59 41.40537 -73.08739 19925 ft 518 kts 61°
2026-04-20 03:59 41.42354 -73.04576 20330 ft 522 kts 62°
2026-04-20 03:59 41.44165 -73.00366 20731 ft 526 kts 62°
2026-04-20 03:59 41.45998 -72.96118 21142 ft 530 kts 62°
2026-04-20 04:00 41.47850 -72.91853 21552 ft 534 kts 62°
2026-04-20 04:00 41.49734 -72.87547 21933 ft 539 kts 62°
2026-04-20 04:00 41.51636 -72.83214 22310 ft 543 kts 62°
2026-04-20 04:00 41.53553 -72.78851 22675 ft 547 kts 62°
2026-04-20 04:01 41.55485 -72.74450 23063 ft 551 kts 62°
2026-04-20 04:01 41.57426 -72.70017 23443 ft 555 kts 62°
2026-04-20 04:01 41.59372 -72.65559 23776 ft 558 kts 62°
2026-04-20 04:01 41.61329 -72.61069 24098 ft 561 kts 63°
2026-04-20 04:02 41.63304 -72.56530 24282 ft 567 kts 63°
2026-04-20 04:02 41.65297 -72.51975 24692 ft 568 kts 63°
2026-04-20 04:02 41.67326 -72.47440 25090 ft 569 kts 62°
2026-04-20 04:02 41.69376 -72.42912 25411 ft 571 kts 62°
2026-04-20 04:03 41.71442 -72.38364 25731 ft 573 kts 63°
2026-04-20 04:03 41.73510 -72.33794 26014 ft 576 kts 63°
2026-04-20 04:03 41.75581 -72.29194 26283 ft 579 kts 63°
2026-04-20 04:03 41.77661 -72.24553 26570 ft 581 kts 63°
2026-04-20 04:04 41.79734 -72.19915 26935 ft 581 kts 64°
2026-04-20 04:04 41.81816 -72.15247 27225 ft 584 kts 64°
2026-04-20 04:04 41.83897 -72.10573 27472 ft 587 kts 64°
2026-04-20 04:04 41.85995 -72.05856 27709 ft 589 kts 64°
2026-04-20 04:05 41.88094 -72.01129 28009 ft 590 kts 64°
2026-04-20 04:05 41.90196 -71.96395 28258 ft 592 kts 64°
2026-04-20 04:05 41.92277 -71.91613 28474 ft 593 kts 68°
2026-04-20 04:05 41.94045 -71.86712 28633 ft 589 kts 74°
2026-04-20 04:06 41.95510 -71.81605 28904 ft 585 kts 79°
2026-04-20 04:06 41.96712 -71.76396 29019 ft 582 kts 84°
2026-04-20 04:06 41.98288 -71.65834 29042 ft 572 kts 89°
2026-04-20 04:07 41.99706 -71.55362 29065 ft 568 kts 89°
2026-04-20 04:07 42.01149 -71.44940 29054 ft 567 kts 88°
2026-04-20 04:08 42.02621 -71.34526 29067 ft 567 kts 89°
2026-04-20 04:08 42.04091 -71.24113 29055 ft 566 kts 88°
2026-04-20 04:09 42.05548 -71.13705 29062 ft 566 kts 89°
2026-04-20 04:09 42.06991 -71.03297 29049 ft 565 kts 89°
2026-04-20 04:10 42.08420 -70.92917 29049 ft 564 kts 89°
2026-04-20 04:10 42.09837 -70.82553 29046 ft 561 kts 89°
2026-04-20 04:11 42.11237 -70.72242 29058 ft 559 kts 89°
2026-04-20 04:11 42.12623 -70.61967 29044 ft 556 kts 89°
2026-04-20 04:12 42.13990 -70.51753 29051 ft 553 kts 89°
2026-04-20 04:12 42.15342 -70.41577 29041 ft 550 kts 89°
2026-04-20 04:13 42.16676 -70.31462 29057 ft 547 kts 89°
2026-04-20 04:13 42.17996 -70.21377 29050 ft 545 kts 89°
2026-04-20 04:14 42.19296 -70.11383 29056 ft 544 kts 89°
2026-04-20 04:14 42.20593 -70.01335 29044 ft 543 kts 89°
2026-04-20 04:15 42.21880 -69.91301 29046 ft 543 kts 89°
2026-04-20 04:15 42.23160 -69.81265 29034 ft 543 kts 88°
2026-04-20 04:16 42.24639 -69.71248 29029 ft 545 kts 86°
2026-04-20 04:16 42.26249 -69.61241 29024 ft 545 kts 85°
2026-04-20 04:17 42.27829 -69.51248 29029 ft 544 kts 85°
2026-04-20 04:17 42.29360 -69.41263 29019 ft 542 kts 85°
2026-04-20 04:18 42.30862 -69.31320 29024 ft 540 kts 85°
2026-04-20 04:18 42.32353 -69.21394 29015 ft 538 kts 85°
2026-04-20 04:19 42.33822 -69.11576 29017 ft 536 kts 85°
2026-04-20 04:19 42.35287 -69.01732 29001 ft 533 kts 85°
2026-04-20 04:20 42.36748 -68.91851 29017 ft 531 kts 85°
2026-04-20 04:20 42.38176 -68.82127 29005 ft 530 kts 85°
2026-04-20 04:21 42.39601 -68.72366 29009 ft 528 kts 85°
2026-04-20 04:21 42.41014 -68.62627 29001 ft 527 kts 85°
2026-04-20 04:22 42.42415 -68.52909 28996 ft 525 kts 85°
2026-04-20 04:22 42.43803 -68.43215 28995 ft 524 kts 85°
2026-04-20 04:23 42.45182 -68.33529 28989 ft 523 kts 85°
2026-04-20 04:23 42.46549 -68.23858 28987 ft 523 kts 85°
2026-04-20 04:24 42.47230 -68.19025 29240 ft 523 kts 87°
2026-04-20 04:24 42.47912 -68.14144 29111 ft 533 kts 88°
2026-04-20 04:24 42.49298 -68.04124 29027 ft 548 kts 88°
2026-04-20 04:25 42.50713 -67.93959 28983 ft 548 kts 87°
2026-04-20 04:25 42.52119 -67.83831 28970 ft 545 kts 87°
2026-04-20 04:26 42.53503 -67.73742 28966 ft 543 kts 87°
2026-04-20 04:26 42.54869 -67.63675 28964 ft 542 kts 87°
2026-04-20 04:27 42.56213 -67.53699 28959 ft 541 kts 87°
2026-04-20 04:27 42.57567 -67.43592 28961 ft 541 kts 87°
2026-04-20 04:28 42.58905 -67.33531 28965 ft 542 kts 87°
2026-04-20 04:28 42.60236 -67.23460 28952 ft 543 kts 87°
2026-04-20 04:29 42.61551 -67.13440 28942 ft 543 kts 87°
2026-04-20 04:29 42.62868 -67.03340 28939 ft 543 kts 87°
2026-04-20 04:30 42.63568 -66.98306 28723 ft 538 kts 80°
2026-04-20 04:30 42.64425 -66.93454 28818 ft 520 kts 79°
2026-04-20 04:30 42.65296 -66.88764 28838 ft 507 kts 78°
2026-04-20 04:30 42.66164 -66.84142 28869 ft 505 kts 78°
2026-04-20 04:31 42.67901 -66.74796 28929 ft 516 kts 78°
2026-04-20 04:31 42.69633 -66.65294 28917 ft 518 kts 78°
2026-04-20 04:32 42.71346 -66.55799 28906 ft 515 kts 78°
2026-04-20 04:32 42.73037 -66.46366 28897 ft 512 kts 78°
2026-04-20 04:33 42.74710 -66.36982 28901 ft 509 kts 78°
2026-04-20 04:33 42.76365 -66.27657 28889 ft 506 kts 78°
2026-04-20 04:34 42.78004 -66.18373 28892 ft 504 kts 78°
2026-04-20 04:34 42.79620 -66.09173 28883 ft 502 kts 78°
2026-04-20 04:35 42.81247 -65.99865 28881 ft 502 kts 78°
2026-04-20 04:35 42.82854 -65.90623 28875 ft 501 kts 78°
2026-04-20 04:36 42.85239 -65.76824 28867 ft 501 kts 78°
2026-04-20 04:37 42.86824 -65.67592 28865 ft 500 kts 78°
2026-04-20 04:37 42.88401 -65.58359 28858 ft 500 kts 78°
2026-04-20 04:38 42.89970 -65.49127 28852 ft 499 kts 78°
2026-04-20 04:38 42.91529 -65.39900 28851 ft 498 kts 78°
2026-04-20 04:39 42.93074 -65.30707 28843 ft 496 kts 78°
2026-04-20 04:39 42.94606 -65.21547 28842 ft 494 kts 78°
2026-04-20 04:40 42.96126 -65.12418 28838 ft 491 kts 78°
2026-04-20 04:40 42.97628 -65.03343 28830 ft 489 kts 78°
2026-04-20 04:41 42.99114 -64.94310 28826 ft 486 kts 78°
2026-04-20 04:41 43.00584 -64.85330 28819 ft 484 kts 78°
2026-04-20 04:42 43.02042 -64.76379 28831 ft 481 kts 78°
2026-04-20 04:42 43.03487 -64.67466 28810 ft 479 kts 78°
2026-04-20 04:43 43.04918 -64.58585 28818 ft 478 kts 78°
2026-04-20 04:43 43.06100 -64.51220 28810 ft 477 kts 78°
2026-04-20 04:44 43.07512 -64.42375 28816 ft 475 kts 78°
2026-04-20 04:44 43.08914 -64.33544 28815 ft 475 kts 78°
2026-04-20 04:45 43.10306 -64.24732 28793 ft 473 kts 78°
2026-04-20 04:45 43.11689 -64.15931 28809 ft 472 kts 78°
2026-04-20 04:46 43.13060 -64.07151 28804 ft 472 kts 77°
2026-04-20 04:46 43.14427 -63.98366 28801 ft 471 kts 78°
2026-04-20 04:47 43.15784 -63.89590 28799 ft 471 kts 77°
2026-04-20 04:47 43.17133 -63.80815 28800 ft 471 kts 77°
2026-04-20 04:48 43.18474 -63.72047 28798 ft 470 kts 77°
2026-04-20 04:48 43.19808 -63.63280 28799 ft 470 kts 78°
2026-04-20 04:49 43.21124 -63.54579 28802 ft 469 kts 78°
2026-04-20 04:49 43.22443 -63.45821 28799 ft 469 kts 78°
2026-04-20 04:50 43.23753 -63.37063 28798 ft 468 kts 78°
2026-04-20 04:50 43.25055 -63.28310 28799 ft 468 kts 78°
2026-04-20 04:51 43.26349 -63.19570 28801 ft 468 kts 78°
2026-04-20 04:51 43.27637 -63.10821 28798 ft 468 kts 78°
2026-04-20 04:52 43.28918 -63.02064 28801 ft 468 kts 78°
2026-04-20 04:52 43.30193 -62.93302 28803 ft 468 kts 78°
2026-04-20 04:53 43.31461 -62.84536 28803 ft 468 kts 78°
2026-04-20 04:53 43.32722 -62.75772 28803 ft 467 kts 78°
2026-04-20 04:54 43.33974 -62.67021 28809 ft 467 kts 78°
2026-04-20 04:54 43.35219 -62.58267 28808 ft 466 kts 78°
2026-04-20 04:55 43.36455 -62.49528 28811 ft 465 kts 78°
2026-04-20 04:55 43.37682 -62.40802 28810 ft 465 kts 78°
2026-04-20 04:56 43.38900 -62.32088 28821 ft 464 kts 78°
2026-04-20 04:56 43.40111 -62.23375 28821 ft 464 kts 78°
2026-04-20 04:57 43.41314 -62.14666 28827 ft 463 kts 78°
2026-04-20 04:57 43.42508 -62.05967 28831 ft 463 kts 78°
2026-04-20 04:58 43.43696 -61.97271 28834 ft 462 kts 79°
2026-04-20 04:58 43.44875 -61.88577 28834 ft 462 kts 79°
2026-04-20 04:59 43.46047 -61.79891 28841 ft 461 kts 79°
2026-04-20 04:59 43.47210 -61.71213 28848 ft 461 kts 79°
2026-04-20 05:00 43.48367 -61.62538 28848 ft 460 kts 79°
2026-04-20 05:00 43.49515 -61.53875 28851 ft 460 kts 79°
2026-04-20 05:01 43.50647 -61.45272 28856 ft 459 kts 79°
2026-04-20 05:01 43.51780 -61.36615 28856 ft 459 kts 79°
2026-04-20 05:02 43.52904 -61.27981 28859 ft 457 kts 79°
2026-04-20 05:02 43.54023 -61.19317 28862 ft 456 kts 79°
2026-04-20 05:03 43.55121 -61.10777 28873 ft 456 kts 79°
2026-04-20 05:03 43.56221 -61.02160 28872 ft 456 kts 79°
2026-04-20 05:04 43.57315 -60.93538 28875 ft 457 kts 80°
2026-04-20 05:04 43.58404 -60.84903 28875 ft 458 kts 80°
2026-04-20 05:05 43.59488 -60.76240 28878 ft 459 kts 80°
2026-04-20 05:05 43.60569 -60.67561 28883 ft 460 kts 80°
2026-04-20 05:06 43.61646 -60.58857 28883 ft 460 kts 80°
2026-04-20 05:06 43.62717 -60.50141 28888 ft 461 kts 80°
2026-04-20 05:07 43.63783 -60.41406 28891 ft 462 kts 80°
2026-04-20 05:07 43.64844 -60.32658 28884 ft 460 kts 80°
2026-04-20 05:08 43.65885 -60.24013 28888 ft 453 kts 80°
2026-04-20 05:08 43.66914 -60.15418 28897 ft 454 kts 81°
2026-04-20 05:09 43.67941 -60.06782 28904 ft 455 kts 81°
2026-04-20 05:09 43.68961 -59.98150 28906 ft 454 kts 81°
2026-04-20 05:10 43.69964 -59.89591 28920 ft 455 kts 81°
2026-04-20 05:10 43.70976 -59.80903 28919 ft 458 kts 81°
2026-04-20 05:11 43.71971 -59.72308 28910 ft 454 kts 81°
2026-04-20 05:11 43.72968 -59.63631 28914 ft 458 kts 81°
2026-04-20 05:12 43.73958 -59.54956 28935 ft 459 kts 81°
2026-04-20 05:12 43.74947 -59.46240 28929 ft 458 kts 81°
2026-04-20 05:13 43.75928 -59.37515 28940 ft 462 kts 81°
2026-04-20 05:13 43.76905 -59.28776 28927 ft 456 kts 81°
2026-04-20 05:14 43.77885 -59.19942 28979 ft 474 kts 81°
2026-04-20 05:14 43.78899 -59.10744 28968 ft 492 kts 81°
2026-04-20 05:15 43.79940 -59.01228 28969 ft 508 kts 81°
2026-04-20 05:15 43.80992 -58.91508 28954 ft 510 kts 81°
2026-04-20 05:16 43.82034 -58.81808 28951 ft 508 kts 81°
2026-04-20 05:16 43.83062 -58.72163 28954 ft 505 kts 81°
2026-04-20 05:17 43.84078 -58.62557 28960 ft 503 kts 81°
2026-04-20 05:17 43.85082 -58.52984 28963 ft 501 kts 81°
2026-04-20 05:18 43.86076 -58.43429 28967 ft 501 kts 81°
2026-04-20 05:18 43.87062 -58.33869 28974 ft 501 kts 81°
2026-04-20 05:19 43.88040 -58.24303 28978 ft 502 kts 81°
2026-04-20 05:19 43.89013 -58.14716 28981 ft 502 kts 81°
2026-04-20 05:20 43.89977 -58.05121 28986 ft 503 kts 82°
2026-04-20 05:20 43.90935 -57.95516 28986 ft 503 kts 82°
2026-04-20 05:21 43.91878 -57.85970 28991 ft 503 kts 82°
2026-04-20 05:21 43.92819 -57.76358 28995 ft 503 kts 83°
2026-04-20 05:22 43.93752 -57.66746 28998 ft 503 kts 83°
2026-04-20 05:22 43.94676 -57.57141 29002 ft 502 kts 83°
2026-04-20 05:23 43.95590 -57.47544 29005 ft 501 kts 84°
2026-04-20 05:23 43.96495 -57.37967 29001 ft 500 kts 84°
2026-04-20 05:24 43.97389 -57.28421 29009 ft 498 kts 84°
2026-04-20 05:24 43.98272 -57.18892 29019 ft 497 kts 84°
2026-04-20 05:25 43.99145 -57.09399 29018 ft 495 kts 85°
2026-04-20 05:25 44.00056 -56.99929 29023 ft 495 kts 82°
2026-04-20 05:26 44.01724 -56.90641 29033 ft 496 kts 77°
2026-04-20 05:26 44.03574 -56.81415 29028 ft 496 kts 77°
2026-04-20 05:27 44.05397 -56.72169 29037 ft 496 kts 77°
2026-04-20 05:27 44.07189 -56.62892 29035 ft 497 kts 78°
2026-04-20 05:28 44.08964 -56.53602 29041 ft 497 kts 78°
2026-04-20 05:28 44.10734 -56.44294 29042 ft 498 kts 78°
2026-04-20 05:29 44.12497 -56.34982 29046 ft 498 kts 78°
2026-04-20 05:29 44.14254 -56.25661 29046 ft 498 kts 79°
2026-04-20 05:30 44.16003 -56.16339 29052 ft 498 kts 79°
2026-04-20 05:30 44.17453 -56.08577 29052 ft 498 kts 79°
2026-04-20 05:31 44.19187 -55.99247 29055 ft 498 kts 79°
2026-04-20 05:31 44.20916 -55.89901 29065 ft 498 kts 79°
2026-04-20 05:32 44.22635 -55.80557 29069 ft 498 kts 79°
2026-04-20 05:32 44.24349 -55.71201 29071 ft 498 kts 79°
2026-04-20 05:33 44.26055 -55.61835 29069 ft 498 kts 80°
2026-04-20 05:33 44.27755 -55.52458 29079 ft 499 kts 80°
2026-04-20 05:34 44.29449 -55.43067 29084 ft 499 kts 80°
2026-04-20 05:34 44.31976 -55.28964 29089 ft 500 kts 80°
2026-04-20 05:35 44.33642 -55.19606 29089 ft 500 kts 80°
2026-04-20 05:35 44.35323 -55.10118 29091 ft 500 kts 80°
2026-04-20 05:36 44.36985 -55.00682 29091 ft 500 kts 80°
2026-04-20 05:36 44.38641 -54.91237 29105 ft 500 kts 81°
2026-04-20 05:37 44.40289 -54.81783 29104 ft 500 kts 81°
2026-04-20 05:37 44.41919 -54.72388 29101 ft 500 kts 81°
2026-04-20 05:38 44.43551 -54.62930 29108 ft 500 kts 81°
2026-04-20 05:38 44.45176 -54.53460 29120 ft 500 kts 81°
2026-04-20 05:39 44.46793 -54.43983 29120 ft 500 kts 81°
2026-04-20 05:39 44.48402 -54.34505 29116 ft 500 kts 81°
2026-04-20 05:40 44.50002 -54.25030 29117 ft 500 kts 81°
2026-04-20 05:40 44.51593 -54.15552 29124 ft 500 kts 81°
2026-04-20 05:41 44.53176 -54.06077 29129 ft 499 kts 81°
2026-04-20 05:41 44.54750 -53.96602 29137 ft 499 kts 81°
2026-04-20 05:42 44.56314 -53.87128 29140 ft 499 kts 81°
2026-04-20 05:42 44.57871 -53.77652 29144 ft 499 kts 81°
2026-04-20 05:43 44.59419 -53.68169 29147 ft 499 kts 81°
2026-04-20 05:43 44.60962 -53.58671 29152 ft 499 kts 81°
2026-04-20 05:44 44.62498 -53.49161 29156 ft 500 kts 81°
2026-04-20 05:44 44.64029 -53.39625 29160 ft 501 kts 81°
2026-04-20 05:45 44.65555 -53.30067 29162 ft 502 kts 81°
2026-04-20 05:45 44.67078 -53.20476 29166 ft 503 kts 81°
2026-04-20 05:46 44.68595 -53.10865 29171 ft 505 kts 81°
2026-04-20 05:46 44.70097 -53.01287 29174 ft 506 kts 81°
2026-04-20 05:47 44.71606 -52.91620 29180 ft 507 kts 81°
2026-04-20 05:47 44.73108 -52.81935 29180 ft 507 kts 81°
2026-04-20 05:48 44.74602 -52.72237 29182 ft 507 kts 81°
2026-04-20 05:48 44.76089 -52.62539 29189 ft 507 kts 81°
2026-04-20 05:49 44.77567 -52.52830 29191 ft 507 kts 81°
2026-04-20 05:49 44.79038 -52.43115 29197 ft 507 kts 81°
2026-04-20 05:50 44.80500 -52.33396 29198 ft 507 kts 81°
2026-04-20 05:50 44.81953 -52.23677 29202 ft 507 kts 81°
2026-04-20 05:51 44.83398 -52.13951 29210 ft 507 kts 81°
2026-04-20 05:51 44.84836 -52.04215 29211 ft 507 kts 81°
2026-04-20 05:52 44.86264 -51.94486 29216 ft 507 kts 81°
2026-04-20 05:52 44.87685 -51.84746 29221 ft 507 kts 81°
2026-04-20 05:53 44.88793 -51.74956 29242 ft 504 kts 87°
2026-04-20 05:53 44.89464 -51.65111 29225 ft 504 kts 87°
2026-04-20 05:54 44.90114 -51.55328 29233 ft 504 kts 87°
2026-04-20 05:54 44.90790 -51.45479 29241 ft 504 kts 87°
2026-04-20 05:55 44.91473 -51.35637 29231 ft 504 kts 87°
2026-04-20 05:55 44.92150 -51.25784 29251 ft 504 kts 87°
2026-04-20 05:56 44.92816 -51.15942 29255 ft 504 kts 87°
2026-04-20 05:56 44.93472 -51.06095 29257 ft 504 kts 87°
2026-04-20 05:57 44.94119 -50.96261 29253 ft 503 kts 87°
2026-04-20 05:57 44.94758 -50.86420 29269 ft 503 kts 87°
2026-04-20 05:58 44.95387 -50.76591 29260 ft 503 kts 87°
2026-04-20 05:58 44.96008 -50.66767 29274 ft 502 kts 87°
2026-04-20 05:59 44.96620 -50.56946 29269 ft 502 kts 87°
2026-04-20 05:59 44.97223 -50.47128 29279 ft 502 kts 87°
2026-04-20 06:00 44.97817 -50.37315 29281 ft 501 kts 87°
2026-04-20 06:00 44.98403 -50.27502 29283 ft 501 kts 87°
2026-04-20 06:01 44.98980 -50.17694 29285 ft 501 kts 87°
2026-04-20 06:01 44.99551 -50.07877 29289 ft 501 kts 87°
2026-04-20 06:02 44.99945 -49.98061 29291 ft 500 kts 93°
2026-04-20 06:02 44.99437 -49.88293 29307 ft 499 kts 97°
2026-04-20 06:03 44.98823 -49.78516 29302 ft 500 kts 96°
2026-04-20 06:03 44.98229 -49.68727 29312 ft 501 kts 96°
2026-04-20 06:04 44.97656 -49.58983 29310 ft 502 kts 96°
2026-04-20 06:04 44.97079 -49.49163 29314 ft 502 kts 96°
2026-04-20 06:05 44.96492 -49.39333 29316 ft 503 kts 96°
2026-04-20 06:05 44.95894 -49.29495 29324 ft 503 kts 96°
2026-04-20 06:06 44.95288 -49.19672 29324 ft 502 kts 96°
2026-04-20 06:06 44.94672 -49.09848 29325 ft 502 kts 96°
2026-04-20 06:07 44.94050 -49.00034 29331 ft 502 kts 96°
2026-04-20 06:07 44.93734 -48.95112 29529 ft 504 kts 96°
2026-04-20 06:07 44.93416 -48.90188 29966 ft 502 kts 96°
2026-04-20 06:08 44.93098 -48.85292 30434 ft 500 kts 96°
2026-04-20 06:08 44.92780 -48.80427 30846 ft 496 kts 97°
2026-04-20 06:08 44.92462 -48.75591 31223 ft 494 kts 97°
2026-04-20 06:08 44.92142 -48.70761 31355 ft 497 kts 97°
2026-04-20 06:09 44.91492 -48.61063 31333 ft 494 kts 97°
2026-04-20 06:09 44.90843 -48.51482 31336 ft 489 kts 97°
2026-04-20 06:10 44.90192 -48.41998 31351 ft 489 kts 98°
2026-04-20 06:10 44.89529 -48.32462 31351 ft 488 kts 98°
2026-04-20 06:11 44.88860 -48.22942 31350 ft 488 kts 98°
2026-04-20 06:11 44.88182 -48.13415 31353 ft 488 kts 98°
2026-04-20 06:12 44.87496 -48.03899 31354 ft 488 kts 98°
2026-04-20 06:12 44.86803 -47.94387 31359 ft 488 kts 98°
2026-04-20 06:13 44.86102 -47.84879 31360 ft 488 kts 98°
2026-04-20 06:13 44.85394 -47.75379 31365 ft 487 kts 98°
2026-04-20 06:14 44.84678 -47.65887 31369 ft 487 kts 99°
2026-04-20 06:14 44.83955 -47.56395 31372 ft 487 kts 99°
2026-04-20 06:15 44.83224 -47.46919 31370 ft 487 kts 99°
2026-04-20 06:15 44.82490 -47.37504 31373 ft 487 kts 99°
2026-04-20 06:16 44.81739 -47.27972 31377 ft 486 kts 99°
2026-04-20 06:16 44.80985 -47.18506 31382 ft 487 kts 99°
2026-04-20 06:17 44.80228 -47.09099 31386 ft 487 kts 99°
2026-04-20 06:17 44.79452 -46.99564 31382 ft 487 kts 99°
2026-04-20 06:18 44.78674 -46.90093 31387 ft 487 kts 99°
2026-04-20 06:18 44.77893 -46.80684 31389 ft 487 kts 99°
2026-04-20 06:19 44.77098 -46.71207 31390 ft 488 kts 99°
2026-04-20 06:19 44.76294 -46.61727 31393 ft 488 kts 99°
2026-04-20 06:20 44.75615 -46.53785 31395 ft 488 kts 99°
2026-04-20 06:20 44.74802 -46.44364 31399 ft 488 kts 99°
2026-04-20 06:21 44.73977 -46.34888 31396 ft 488 kts 99°
2026-04-20 06:21 44.73142 -46.25408 31397 ft 488 kts 99°
2026-04-20 06:22 44.72300 -46.15929 31402 ft 489 kts 99°
2026-04-20 06:22 44.71450 -46.06448 31405 ft 489 kts 99°
2026-04-20 06:23 44.70592 -45.96972 31404 ft 489 kts 99°
2026-04-20 06:23 44.69726 -45.87498 31407 ft 489 kts 99°
2026-04-20 06:24 44.68851 -45.78019 31410 ft 489 kts 99°
2026-04-20 06:24 44.67968 -45.68538 31415 ft 489 kts 99°
2026-04-20 06:25 44.67077 -45.59057 31412 ft 489 kts 99°
2026-04-20 06:25 44.66179 -45.49583 31416 ft 490 kts 99°
2026-04-20 06:26 44.65272 -45.40101 31415 ft 490 kts 99°
2026-04-20 06:26 44.64357 -45.30627 31421 ft 490 kts 98°
2026-04-20 06:27 44.63434 -45.21149 31421 ft 490 kts 98°
2026-04-20 06:27 44.62503 -45.11672 31425 ft 490 kts 98°
2026-04-20 06:28 44.61570 -45.02266 31426 ft 490 kts 98°
2026-04-20 06:28 44.60624 -44.92796 31430 ft 490 kts 98°
2026-04-20 06:29 44.59668 -44.83321 31429 ft 490 kts 98°
2026-04-20 06:29 44.58705 -44.73851 31431 ft 490 kts 98°
2026-04-20 06:30 44.57735 -44.64384 31436 ft 490 kts 98°
2026-04-20 06:30 44.56756 -44.54920 31434 ft 491 kts 98°
2026-04-20 06:31 44.55768 -44.45449 31438 ft 491 kts 98°
2026-04-20 06:31 44.54773 -44.35978 31438 ft 491 kts 98°
2026-04-20 06:32 44.53769 -44.26508 31439 ft 491 kts 98°
2026-04-20 06:32 44.52756 -44.17032 31441 ft 492 kts 98°
2026-04-20 06:33 44.51735 -44.07555 31445 ft 492 kts 98°
2026-04-20 06:33 44.50706 -43.98077 31445 ft 492 kts 98°
2026-04-20 06:34 44.49670 -43.88607 31446 ft 492 kts 98°
2026-04-20 06:35 44.48107 -43.74473 31448 ft 492 kts 98°
2026-04-20 06:35 44.47050 -43.65002 31448 ft 492 kts 98°
2026-04-20 06:36 44.45986 -43.55543 31446 ft 492 kts 98°
2026-04-20 06:36 44.44914 -43.46079 31449 ft 492 kts 98°
2026-04-20 06:37 44.43833 -43.36615 31448 ft 493 kts 98°
2026-04-20 06:37 44.42744 -43.27151 31451 ft 493 kts 98°
2026-04-20 06:38 44.41646 -43.17681 31449 ft 493 kts 98°
2026-04-20 06:38 44.40540 -43.08212 31447 ft 493 kts 98°
2026-04-20 06:39 44.39425 -42.98743 31447 ft 494 kts 98°
2026-04-20 06:39 44.38301 -42.89262 31447 ft 495 kts 98°
2026-04-20 06:40 44.37168 -42.79773 31449 ft 495 kts 98°
2026-04-20 06:40 44.36026 -42.70283 31448 ft 496 kts 98°
2026-04-20 06:41 44.34874 -42.60780 31448 ft 496 kts 98°
2026-04-20 06:41 44.33721 -42.51334 31448 ft 497 kts 98°
2026-04-20 06:42 44.32550 -42.41808 31448 ft 498 kts 98°
2026-04-20 06:42 44.31372 -42.32287 31449 ft 498 kts 98°
2026-04-20 06:43 44.30182 -42.22748 31448 ft 499 kts 98°
2026-04-20 06:43 44.28985 -42.13214 31448 ft 499 kts 98°
2026-04-20 06:44 44.27777 -42.03664 31449 ft 500 kts 98°
2026-04-20 06:44 44.26561 -41.94118 31446 ft 500 kts 98°
2026-04-20 06:45 44.25336 -41.84563 31445 ft 500 kts 98°
2026-04-20 06:45 44.24103 -41.75010 31446 ft 501 kts 98°
2026-04-20 06:46 44.22859 -41.65445 31445 ft 501 kts 98°
2026-04-20 06:46 44.21607 -41.55883 31446 ft 502 kts 97°
2026-04-20 06:47 44.20346 -41.46310 31447 ft 502 kts 97°
2026-04-20 06:47 44.19083 -41.36794 31449 ft 503 kts 97°
2026-04-20 06:48 44.17804 -41.27216 31446 ft 503 kts 97°
2026-04-20 06:48 44.16514 -41.17623 31447 ft 504 kts 97°
2026-04-20 06:49 44.15216 -41.08030 31449 ft 504 kts 97°
2026-04-20 06:49 44.13908 -40.98436 31443 ft 505 kts 97°
2026-04-20 06:50 44.12592 -40.88836 31444 ft 505 kts 98°
2026-04-20 06:50 44.11266 -40.79231 31442 ft 505 kts 98°
2026-04-20 06:51 44.09931 -40.69627 31444 ft 506 kts 98°
2026-04-20 06:51 44.08587 -40.60018 31442 ft 506 kts 98°
2026-04-20 06:52 44.07235 -40.50413 31438 ft 506 kts 98°
2026-04-20 06:52 44.05876 -40.40815 31441 ft 506 kts 98°
2026-04-20 06:53 44.04508 -40.31217 31445 ft 506 kts 98°
2026-04-20 06:53 44.03131 -40.21617 31439 ft 506 kts 98°
2026-04-20 06:54 44.01747 -40.12029 31442 ft 506 kts 98°
2026-04-20 06:54 44.00357 -40.02446 31441 ft 506 kts 98°
2026-04-20 06:55 43.98937 -39.92862 31438 ft 507 kts 98°
2026-04-20 06:55 43.97474 -39.83291 31441 ft 507 kts 98°
2026-04-20 06:56 43.96002 -39.73720 31436 ft 507 kts 98°
2026-04-20 06:56 43.94537 -39.64213 31432 ft 507 kts 98°
2026-04-20 06:57 43.93055 -39.54637 31433 ft 508 kts 98°
2026-04-20 06:57 43.91557 -39.45000 31434 ft 508 kts 98°
2026-04-20 06:58 43.90059 -39.35431 31430 ft 508 kts 98°
2026-04-20 06:58 43.88561 -39.25916 31430 ft 508 kts 98°
2026-04-20 06:59 43.87046 -39.16343 31426 ft 509 kts 98°
2026-04-20 06:59 43.85522 -39.06775 31427 ft 509 kts 98°
2026-04-20 07:00 43.83988 -38.97200 31430 ft 509 kts 98°
2026-04-20 07:00 43.82447 -38.87630 31429 ft 509 kts 98°
2026-04-20 07:01 43.80896 -38.78062 31425 ft 509 kts 98°
2026-04-20 07:01 43.79339 -38.68501 31426 ft 509 kts 98°
2026-04-20 07:02 43.77771 -38.58934 31426 ft 510 kts 98°
2026-04-20 07:02 43.76196 -38.49374 31425 ft 510 kts 98°
2026-04-20 07:03 43.74612 -38.39812 31426 ft 510 kts 98°
2026-04-20 07:03 43.73019 -38.30250 31424 ft 510 kts 98°
2026-04-20 07:04 43.71417 -38.20688 31420 ft 511 kts 98°
2026-04-20 07:04 43.69805 -38.11120 31413 ft 511 kts 97°
2026-04-20 07:05 43.68186 -38.01562 31426 ft 511 kts 97°
2026-04-20 07:05 43.66559 -37.92006 31415 ft 511 kts 97°
2026-04-20 07:06 43.64934 -37.82517 31415 ft 511 kts 97°
2026-04-20 07:06 43.63289 -37.72961 31417 ft 512 kts 97°
2026-04-20 07:07 43.61636 -37.63408 31414 ft 512 kts 97°
2026-04-20 07:07 43.59973 -37.53852 31416 ft 512 kts 97°
2026-04-20 07:08 43.58302 -37.44298 31414 ft 512 kts 97°
2026-04-20 07:08 43.56623 -37.34749 31414 ft 512 kts 97°
2026-04-20 07:09 43.54935 -37.25204 31408 ft 513 kts 97°
2026-04-20 07:09 43.53239 -37.15664 31410 ft 513 kts 97°
2026-04-20 07:10 43.51534 -37.06119 31405 ft 513 kts 97°
2026-04-20 07:10 43.50111 -36.98193 31399 ft 513 kts 97°
2026-04-20 07:11 43.48392 -36.88660 31401 ft 513 kts 97°
2026-04-20 07:11 43.46665 -36.79132 31400 ft 513 kts 97°
2026-04-20 07:12 43.44928 -36.69601 31394 ft 514 kts 97°
2026-04-20 07:12 43.43181 -36.60066 31399 ft 514 kts 97°
2026-04-20 07:13 43.41428 -36.50542 31400 ft 514 kts 97°
2026-04-20 07:13 43.39664 -36.41008 31401 ft 514 kts 97°
2026-04-20 07:14 43.37891 -36.31474 31394 ft 515 kts 97°
2026-04-20 07:14 43.36110 -36.21945 31394 ft 515 kts 97°
2026-04-20 07:15 43.34319 -36.12410 31395 ft 516 kts 97°
2026-04-20 07:15 43.32517 -36.02868 31391 ft 516 kts 97°
2026-04-20 07:16 43.30706 -35.93323 31389 ft 517 kts 97°
2026-04-20 07:16 43.28896 -35.83836 31389 ft 517 kts 97°
2026-04-20 07:17 43.27067 -35.74287 31385 ft 517 kts 97°
2026-04-20 07:17 43.25228 -35.64742 31379 ft 517 kts 97°
2026-04-20 07:18 43.23383 -35.55207 31375 ft 517 kts 97°
2026-04-20 07:18 43.21530 -35.45684 31375 ft 517 kts 97°
2026-04-20 07:19 43.19672 -35.36177 31373 ft 516 kts 97°
2026-04-20 07:19 43.17808 -35.26686 31370 ft 515 kts 97°
2026-04-20 07:20 43.15939 -35.17213 31364 ft 515 kts 97°
2026-04-20 07:20 43.14062 -35.07744 31367 ft 515 kts 97°
2026-04-20 07:21 43.12179 -34.98289 31363 ft 515 kts 97°
2026-04-20 07:21 43.10287 -34.88834 31369 ft 515 kts 97°
2026-04-20 07:22 43.08385 -34.79378 31359 ft 516 kts 96°
2026-04-20 07:22 43.06475 -34.69920 31355 ft 516 kts 96°
2026-04-20 07:23 43.04565 -34.60514 31353 ft 517 kts 96°
2026-04-20 07:23 43.02622 -34.50983 31354 ft 518 kts 96°
2026-04-20 07:24 43.00692 -34.41565 31350 ft 518 kts 96°
2026-04-20 07:24 42.98739 -34.32080 31352 ft 519 kts 96°
2026-04-20 07:25 42.96779 -34.22602 31347 ft 519 kts 96°
2026-04-20 07:25 42.94807 -34.13112 31341 ft 519 kts 96°
2026-04-20 07:26 42.92828 -34.03632 31342 ft 520 kts 96°
2026-04-20 07:26 42.90839 -33.94147 31343 ft 520 kts 96°
2026-04-20 07:27 42.88842 -33.84665 31339 ft 520 kts 96°
2026-04-20 07:27 42.86837 -33.75190 31327 ft 520 kts 96°
2026-04-20 07:28 42.84822 -33.65715 31330 ft 521 kts 96°
2026-04-20 07:28 42.82798 -33.56235 31332 ft 521 kts 96°
2026-04-20 07:29 42.80764 -33.46749 31332 ft 522 kts 96°
2026-04-20 07:29 42.78721 -33.37268 31330 ft 522 kts 97°
2026-04-20 07:30 42.76667 -33.27778 31321 ft 523 kts 97°
2026-04-20 07:30 42.74604 -33.18291 31320 ft 523 kts 97°
2026-04-20 07:31 42.72532 -33.08802 31319 ft 524 kts 97°
2026-04-20 07:31 42.70450 -32.99312 31317 ft 524 kts 97°
2026-04-20 07:32 42.68373 -32.89884 31317 ft 524 kts 97°
2026-04-20 07:32 42.66272 -32.80390 31316 ft 525 kts 97°
2026-04-20 07:33 42.64162 -32.70896 31311 ft 525 kts 97°
2026-04-20 07:33 42.62042 -32.61405 31304 ft 525 kts 97°
2026-04-20 07:34 42.59915 -32.51917 31301 ft 525 kts 97°
2026-04-20 07:34 42.57779 -32.42433 31297 ft 526 kts 97°
2026-04-20 07:35 42.54560 -32.28218 31288 ft 526 kts 97°
2026-04-20 07:35 42.52404 -32.18748 31295 ft 526 kts 97°
2026-04-20 07:36 42.50239 -32.09278 31292 ft 526 kts 98°
2026-04-20 07:36 42.48067 -31.99819 31287 ft 526 kts 98°
2026-04-20 07:37 42.45885 -31.90357 31299 ft 526 kts 98°
2026-04-20 07:37 42.43696 -31.80902 31293 ft 526 kts 98°
2026-04-20 07:38 42.41497 -31.71448 31290 ft 527 kts 98°
2026-04-20 07:38 42.39290 -31.61999 31283 ft 527 kts 98°
2026-04-20 07:39 42.37074 -31.52552 31280 ft 527 kts 98°
2026-04-20 07:39 42.34851 -31.43114 31280 ft 527 kts 98°
2026-04-20 07:40 42.32622 -31.33689 31278 ft 527 kts 98°
2026-04-20 07:40 42.30400 -31.24331 31269 ft 526 kts 99°
2026-04-20 07:41 42.28155 -31.14919 31272 ft 526 kts 99°
2026-04-20 07:41 42.25904 -31.05518 31269 ft 526 kts 99°
2026-04-20 07:42 42.23643 -30.96116 31272 ft 526 kts 99°
2026-04-20 07:42 42.21376 -30.86724 31269 ft 527 kts 99°
2026-04-20 07:43 42.19099 -30.77334 31268 ft 527 kts 99°
2026-04-20 07:43 42.16814 -30.67947 31261 ft 527 kts 99°
2026-04-20 07:44 42.14524 -30.58575 31269 ft 527 kts 99°
2026-04-20 07:44 42.12223 -30.49199 31262 ft 527 kts 100°
2026-04-20 07:45 42.09915 -30.39830 31261 ft 527 kts 100°
2026-04-20 07:45 42.07597 -30.30458 31258 ft 528 kts 100°
2026-04-20 07:46 42.05272 -30.21096 31259 ft 528 kts 100°
2026-04-20 07:46 42.02937 -30.11727 31257 ft 528 kts 100°
2026-04-20 07:47 42.00703 -30.02407 31257 ft 523 kts 95°
2026-04-20 07:47 41.99483 -29.92918 31256 ft 508 kts 84°
2026-04-20 07:48 41.99004 -29.83451 31261 ft 508 kts 84°
2026-04-20 07:48 41.98508 -29.73965 31264 ft 509 kts 84°
2026-04-20 07:49 41.97971 -29.64461 31257 ft 511 kts 85°
2026-04-20 07:49 41.97408 -29.54939 31251 ft 511 kts 85°
2026-04-20 07:50 41.96834 -29.45409 31246 ft 512 kts 85°
2026-04-20 07:50 41.96254 -29.35875 31245 ft 512 kts 85°
2026-04-20 07:51 41.95667 -29.26329 31243 ft 513 kts 85°
2026-04-20 07:51 41.95071 -29.16771 31246 ft 514 kts 85°
2026-04-20 07:52 41.94467 -29.07201 31244 ft 514 kts 85°
2026-04-20 07:52 41.93854 -28.97627 31240 ft 515 kts 85°
2026-04-20 07:53 41.93232 -28.88045 31237 ft 515 kts 85°
2026-04-20 07:53 41.92602 -28.78455 31238 ft 516 kts 85°
2026-04-20 07:54 41.91962 -28.68851 31239 ft 517 kts 85°
2026-04-20 07:54 41.91315 -28.59244 31235 ft 517 kts 85°
2026-04-20 07:55 41.90662 -28.49686 31230 ft 518 kts 85°
2026-04-20 07:55 41.89997 -28.40059 31233 ft 518 kts 85°
2026-04-20 07:56 41.89323 -28.30421 31234 ft 519 kts 86°
2026-04-20 07:56 41.88640 -28.20774 31232 ft 520 kts 86°
2026-04-20 07:57 41.87948 -28.11116 31235 ft 520 kts 86°
2026-04-20 07:57 41.87247 -28.01456 31223 ft 521 kts 86°
2026-04-20 07:58 41.86537 -27.91782 31226 ft 521 kts 86°
2026-04-20 07:58 41.85818 -27.82093 31223 ft 522 kts 86°
2026-04-20 07:59 41.85091 -27.72404 31220 ft 523 kts 87°
2026-04-20 07:59 41.84354 -27.62703 31219 ft 523 kts 87°
2026-04-20 08:00 41.83735 -27.54637 31218 ft 524 kts 87°
2026-04-20 08:00 41.82982 -27.44915 31215 ft 524 kts 88°
2026-04-20 08:01 41.82219 -27.35189 31213 ft 525 kts 88°
2026-04-20 08:01 41.81448 -27.25453 31203 ft 526 kts 88°
2026-04-20 08:02 41.80667 -27.15709 31217 ft 526 kts 88°
2026-04-20 08:02 41.79877 -27.05951 31221 ft 527 kts 89°
2026-04-20 08:03 41.79079 -26.96190 31216 ft 527 kts 89°
2026-04-20 08:03 41.78272 -26.86433 31211 ft 527 kts 90°
2026-04-20 08:04 41.77455 -26.76668 31209 ft 527 kts 90°
2026-04-20 08:04 41.76630 -26.66902 31201 ft 527 kts 90°
2026-04-20 08:05 41.75798 -26.57148 31197 ft 527 kts 91°
2026-04-20 08:05 41.74964 -26.47467 31190 ft 527 kts 91°
2026-04-20 08:06 41.74117 -26.37732 31186 ft 526 kts 91°
2026-04-20 08:06 41.73261 -26.28000 31199 ft 526 kts 92°
2026-04-20 08:07 41.72398 -26.18276 31188 ft 526 kts 92°
2026-04-20 08:07 41.71527 -26.08557 31187 ft 526 kts 93°
2026-04-20 08:08 41.70649 -25.98851 31183 ft 525 kts 93°
2026-04-20 08:08 41.69762 -25.89147 31180 ft 525 kts 94°
2026-04-20 08:09 41.68868 -25.79453 31179 ft 525 kts 94°
2026-04-20 08:09 41.67966 -25.69758 31181 ft 525 kts 94°
2026-04-20 08:10 41.67056 -25.60074 31178 ft 525 kts 95°
2026-04-20 08:10 41.66137 -25.50384 31173 ft 525 kts 95°
2026-04-20 08:11 41.65210 -25.40703 31167 ft 525 kts 95°
2026-04-20 08:11 41.64276 -25.31023 31165 ft 525 kts 96°
2026-04-20 08:12 41.63333 -25.21345 31166 ft 525 kts 96°
2026-04-20 08:12 41.62382 -25.11674 31164 ft 525 kts 96°
2026-04-20 08:13 41.61423 -25.02006 31159 ft 525 kts 97°
2026-04-20 08:13 41.60456 -24.92339 31157 ft 525 kts 97°
2026-04-20 08:14 41.59482 -24.82684 31147 ft 524 kts 97°
2026-04-20 08:14 41.58500 -24.73040 31152 ft 524 kts 98°
2026-04-20 08:15 41.57511 -24.63399 31149 ft 524 kts 98°
2026-04-20 08:15 41.56514 -24.53768 31145 ft 523 kts 98°
2026-04-20 08:16 41.55510 -24.44148 31143 ft 523 kts 99°
2026-04-20 08:16 41.54499 -24.34540 31140 ft 522 kts 99°
2026-04-20 08:17 41.53481 -24.24941 31139 ft 522 kts 99°
2026-04-20 08:17 41.52457 -24.15364 31135 ft 521 kts 99°
2026-04-20 08:18 41.51425 -24.05799 31137 ft 520 kts 100°
2026-04-20 08:18 41.50388 -23.96257 31130 ft 519 kts 100°
2026-04-20 08:19 41.49352 -23.86798 31126 ft 518 kts 101°
2026-04-20 08:19 41.48305 -23.77311 31126 ft 517 kts 101°
2026-04-20 08:20 41.47252 -23.67842 31122 ft 515 kts 101°
2026-04-20 08:20 41.46194 -23.58408 31137 ft 514 kts 102°
2026-04-20 08:21 41.45131 -23.49003 31125 ft 513 kts 102°
2026-04-20 08:21 41.44063 -23.39615 31124 ft 511 kts 102°
2026-04-20 08:22 41.42990 -23.30260 31117 ft 510 kts 103°
2026-04-20 08:22 41.41913 -23.20932 31110 ft 509 kts 103°
2026-04-20 08:23 41.40830 -23.11629 31101 ft 507 kts 104°
2026-04-20 08:23 41.39744 -23.02357 31108 ft 506 kts 104°
2026-04-20 08:24 41.38652 -22.93110 31108 ft 505 kts 104°
2026-04-20 08:24 41.37556 -22.83891 31103 ft 503 kts 105°
2026-04-20 08:25 41.36456 -22.74703 31107 ft 502 kts 105°
2026-04-20 08:25 41.35350 -22.65531 31108 ft 501 kts 105°
2026-04-20 08:26 41.34240 -22.56384 31106 ft 501 kts 105°
2026-04-20 08:26 41.33123 -22.47247 31099 ft 500 kts 106°
2026-04-20 08:27 41.32002 -22.38136 31089 ft 499 kts 106°
2026-04-20 08:27 41.30875 -22.29038 31088 ft 498 kts 106°
2026-04-20 08:28 41.29742 -22.19959 31090 ft 497 kts 106°
2026-04-20 08:28 41.28604 -22.10896 31089 ft 496 kts 106°
2026-04-20 08:29 41.27462 -22.01854 31092 ft 496 kts 107°
2026-04-20 08:29 41.26315 -21.92841 31089 ft 495 kts 107°
2026-04-20 08:30 41.25162 -21.83829 31082 ft 493 kts 107°
2026-04-20 08:30 41.24005 -21.74850 31081 ft 492 kts 107°
2026-04-20 08:31 41.22844 -21.65900 31076 ft 491 kts 107°
2026-04-20 08:31 41.21688 -21.57035 31073 ft 490 kts 107°
2026-04-20 08:32 41.20519 -21.48137 31071 ft 489 kts 107°
2026-04-20 08:32 41.19345 -21.39249 31064 ft 488 kts 107°
2026-04-20 08:33 41.17574 -21.25953 31073 ft 487 kts 107°
2026-04-20 08:34 41.16386 -21.17098 31063 ft 488 kts 107°
2026-04-20 08:34 41.15189 -21.08235 31061 ft 488 kts 107°
2026-04-20 08:35 41.13985 -20.99367 31059 ft 489 kts 107°
2026-04-20 08:35 41.12773 -20.90497 31060 ft 489 kts 107°
2026-04-20 08:36 41.11554 -20.81622 31059 ft 489 kts 107°
2026-04-20 08:36 41.10328 -20.72750 31054 ft 489 kts 107°
2026-04-20 08:37 41.09096 -20.63888 31052 ft 489 kts 107°
2026-04-20 08:37 41.07858 -20.55033 31044 ft 488 kts 107°
2026-04-20 08:38 41.06614 -20.46190 31042 ft 488 kts 107°
2026-04-20 08:38 41.05366 -20.37367 31035 ft 487 kts 107°
2026-04-20 08:39 41.04113 -20.28564 31038 ft 486 kts 107°
2026-04-20 08:39 41.02854 -20.19769 31052 ft 486 kts 106°
2026-04-20 08:40 41.01591 -20.10986 31042 ft 486 kts 106°
2026-04-20 08:40 41.00359 -20.02191 31033 ft 488 kts 103°
2026-04-20 08:41 41.00027 -19.93223 31027 ft 495 kts 93°
2026-04-20 08:41 41.00266 -19.84121 31034 ft 495 kts 93°
2026-04-20 08:42 41.00496 -19.75021 31030 ft 494 kts 93°
2026-04-20 08:42 41.00686 -19.65929 31025 ft 494 kts 93°
2026-04-20 08:43 41.00852 -19.56855 31016 ft 493 kts 94°
2026-04-20 08:43 41.01008 -19.47800 31021 ft 491 kts 94°
2026-04-20 08:44 41.01158 -19.38765 31013 ft 490 kts 94°
2026-04-20 08:44 41.01301 -19.29751 31011 ft 489 kts 94°
2026-04-20 08:45 41.01438 -19.20766 31009 ft 488 kts 94°
2026-04-20 08:45 41.01567 -19.11801 31006 ft 487 kts 94°
2026-04-20 08:46 41.01688 -19.02852 31006 ft 486 kts 94°
2026-04-20 08:46 41.01803 -18.93911 31003 ft 485 kts 94°
2026-04-20 08:47 41.01893 -18.86480 31001 ft 485 kts 94°
2026-04-20 08:47 41.01994 -18.77554 30998 ft 485 kts 94°
2026-04-20 08:48 41.02089 -18.68634 30994 ft 484 kts 94°
2026-04-20 08:48 41.02177 -18.59721 30993 ft 484 kts 94°
2026-04-20 08:49 41.02258 -18.50804 30990 ft 484 kts 94°
2026-04-20 08:49 41.02333 -18.41895 30988 ft 484 kts 94°
2026-04-20 08:50 41.02400 -18.32985 30994 ft 484 kts 94°
2026-04-20 08:50 41.02461 -18.24078 30975 ft 484 kts 94°
2026-04-20 08:51 41.02515 -18.15176 30981 ft 483 kts 94°
2026-04-20 08:51 41.02562 -18.06296 30964 ft 482 kts 94°
2026-04-20 08:52 41.02601 -17.97443 30973 ft 480 kts 94°
2026-04-20 08:52 41.02634 -17.88608 30969 ft 479 kts 94°
2026-04-20 08:53 41.02660 -17.79799 30973 ft 478 kts 94°
2026-04-20 08:53 41.02679 -17.70996 30965 ft 478 kts 95°
2026-04-20 08:54 41.02692 -17.62208 30968 ft 477 kts 95°
2026-04-20 08:54 41.02697 -17.53420 30985 ft 478 kts 95°
2026-04-20 08:55 41.02695 -17.44655 30961 ft 479 kts 95°
2026-04-20 08:55 41.02690 -17.35839 30968 ft 478 kts 95°
2026-04-20 08:56 41.02676 -17.27039 30962 ft 477 kts 95°
2026-04-20 08:56 41.02655 -17.18253 30982 ft 477 kts 95°
2026-04-20 08:57 41.02627 -17.09458 30963 ft 478 kts 95°
2026-04-20 08:57 41.02593 -17.00660 30975 ft 478 kts 95°
2026-04-20 08:58 41.02552 -16.91841 30972 ft 479 kts 95°
2026-04-20 08:58 41.02504 -16.83016 30976 ft 479 kts 95°
2026-04-20 08:59 41.02450 -16.74194 30976 ft 479 kts 95°
2026-04-20 08:59 41.02389 -16.65366 30977 ft 479 kts 95°
2026-04-20 09:00 41.02321 -16.56551 30976 ft 479 kts 95°
2026-04-20 09:00 41.02247 -16.47743 30977 ft 478 kts 95°
2026-04-20 09:01 41.02166 -16.38954 30979 ft 477 kts 95°
2026-04-20 09:01 41.02078 -16.30165 30974 ft 477 kts 95°
2026-04-20 09:02 41.01984 -16.21391 30984 ft 477 kts 95°
2026-04-20 09:02 41.01883 -16.12604 30986 ft 478 kts 95°
2026-04-20 09:03 41.01774 -16.03787 30982 ft 479 kts 95°
2026-04-20 09:03 41.01661 -15.95022 30987 ft 479 kts 95°
2026-04-20 09:04 41.01539 -15.86138 30982 ft 479 kts 95°
2026-04-20 09:04 41.01411 -15.77373 30992 ft 480 kts 96°
2026-04-20 09:05 41.01275 -15.68486 30976 ft 480 kts 96°
2026-04-20 09:05 41.01135 -15.59714 30989 ft 480 kts 96°
2026-04-20 09:06 41.00987 -15.50896 30984 ft 479 kts 96°
2026-04-20 09:06 41.00832 -15.42091 31001 ft 478 kts 96°
2026-04-20 09:07 41.00671 -15.33298 30980 ft 477 kts 96°
2026-04-20 09:07 41.00504 -15.24545 30984 ft 475 kts 97°
2026-04-20 09:08 41.00331 -15.15814 30998 ft 474 kts 97°
2026-04-20 09:08 41.00152 -15.07113 30992 ft 473 kts 97°
2026-04-20 09:09 40.99972 -14.98418 30991 ft 472 kts 96°
2026-04-20 09:09 40.99915 -14.89727 30993 ft 472 kts 95°
2026-04-20 09:10 40.99906 -14.81034 30991 ft 472 kts 95°
2026-04-20 09:10 40.99881 -14.72358 30991 ft 472 kts 95°
2026-04-20 09:11 40.99836 -14.63681 30992 ft 472 kts 96°
2026-04-20 09:11 40.99779 -14.54996 30993 ft 472 kts 96°
2026-04-20 09:12 40.99715 -14.46367 30994 ft 472 kts 96°
2026-04-20 09:12 40.99645 -14.37610 30995 ft 472 kts 96°
2026-04-20 09:13 40.99569 -14.28917 30997 ft 473 kts 96°
2026-04-20 09:13 40.99487 -14.20271 31002 ft 473 kts 96°
2026-04-20 09:14 40.99398 -14.11505 30996 ft 473 kts 96°
2026-04-20 09:14 40.99302 -14.02792 30995 ft 473 kts 95°
2026-04-20 09:15 40.99201 -13.94146 31003 ft 473 kts 95°
2026-04-20 09:15 40.99092 -13.85431 31000 ft 474 kts 95°
2026-04-20 09:16 40.98976 -13.76711 31000 ft 474 kts 95°
2026-04-20 09:16 40.98854 -13.67990 31003 ft 474 kts 95°
2026-04-20 09:17 40.98726 -13.59264 31001 ft 475 kts 95°
2026-04-20 09:17 40.98590 -13.50524 31002 ft 475 kts 96°
2026-04-20 09:18 40.98448 -13.41785 31004 ft 475 kts 96°
2026-04-20 09:18 40.98299 -13.33041 31002 ft 476 kts 96°
2026-04-20 09:19 40.98144 -13.24288 31001 ft 476 kts 96°
2026-04-20 09:19 40.97982 -13.15532 31002 ft 476 kts 96°
2026-04-20 09:20 40.97813 -13.06780 30995 ft 476 kts 96°
2026-04-20 09:20 40.97638 -12.98025 30993 ft 476 kts 96°
2026-04-20 09:21 40.97456 -12.89266 30991 ft 476 kts 96°
2026-04-20 09:21 40.97267 -12.80509 30994 ft 476 kts 96°
2026-04-20 09:22 40.97073 -12.71810 30999 ft 476 kts 96°
2026-04-20 09:22 40.96869 -12.62990 30998 ft 476 kts 96°
2026-04-20 09:23 40.96660 -12.54228 30999 ft 477 kts 96°
2026-04-20 09:23 40.96445 -12.45464 30999 ft 477 kts 96°
2026-04-20 09:24 40.96223 -12.36696 31000 ft 477 kts 96°
2026-04-20 09:24 40.95993 -12.27914 31001 ft 478 kts 96°
2026-04-20 09:25 40.95759 -12.19181 31002 ft 478 kts 96°
2026-04-20 09:25 40.95516 -12.10389 31011 ft 479 kts 96°
2026-04-20 09:26 40.95266 -12.01572 30994 ft 480 kts 96°
2026-04-20 09:26 40.95009 -11.92730 31140 ft 483 kts 96°
2026-04-20 09:26 40.94878 -11.88293 31486 ft 482 kts 96°
2026-04-20 09:27 40.94742 -11.83867 31881 ft 480 kts 97°
2026-04-20 09:27 40.94576 -11.79473 32276 ft 477 kts 97°
2026-04-20 09:27 40.94390 -11.75101 32626 ft 476 kts 97°
2026-04-20 09:27 40.94195 -11.70729 32902 ft 477 kts 97°
2026-04-20 09:28 40.93996 -11.66334 32954 ft 481 kts 97°
2026-04-20 09:28 40.93600 -11.57512 32999 ft 479 kts 97°
2026-04-20 09:29 40.93214 -11.48760 33012 ft 475 kts 97°
2026-04-20 09:29 40.92823 -11.40041 33006 ft 475 kts 97°
2026-04-20 09:30 40.92425 -11.31320 33008 ft 475 kts 97°
2026-04-20 09:30 40.92020 -11.22592 33009 ft 476 kts 97°
2026-04-20 09:31 40.91608 -11.13840 33012 ft 478 kts 97°
2026-04-20 09:31 40.91187 -11.05065 33008 ft 479 kts 97°
2026-04-20 09:32 40.90760 -10.96275 33010 ft 480 kts 97°
2026-04-20 09:32 40.90325 -10.87466 33008 ft 480 kts 96°
2026-04-20 09:33 40.89886 -10.78716 33010 ft 481 kts 97°
2026-04-20 09:33 40.89437 -10.69905 33009 ft 481 kts 97°
2026-04-20 09:34 40.88981 -10.61092 33008 ft 480 kts 96°
2026-04-20 09:34 40.88286 -10.47886 33003 ft 480 kts 96°
2026-04-20 09:35 40.87891 -10.40513 33004 ft 480 kts 97°
2026-04-20 09:35 40.87416 -10.31770 33000 ft 480 kts 97°
2026-04-20 09:36 40.86932 -10.22971 33000 ft 480 kts 97°
2026-04-20 09:36 40.86441 -10.14175 33004 ft 480 kts 97°
2026-04-20 09:37 40.85943 -10.05375 33002 ft 481 kts 97°
2026-04-20 09:37 40.85438 -9.96567 33007 ft 481 kts 97°
2026-04-20 09:38 40.84926 -9.87760 33006 ft 481 kts 97°
2026-04-20 09:38 40.84407 -9.78947 33004 ft 482 kts 97°
2026-04-20 09:39 40.83880 -9.70123 33005 ft 482 kts 97°
2026-04-20 09:39 40.83348 -9.61303 33002 ft 482 kts 97°
2026-04-20 09:40 40.82807 -9.52468 33002 ft 483 kts 97°
2026-04-20 09:40 40.82259 -9.43638 33005 ft 483 kts 97°
2026-04-20 09:41 40.81705 -9.34802 33004 ft 483 kts 97°
2026-04-20 09:41 40.81144 -9.25971 33008 ft 483 kts 98°
2026-04-20 09:42 40.80576 -9.17132 33006 ft 483 kts 98°
2026-04-20 09:42 40.80001 -9.08292 33001 ft 483 kts 98°
2026-04-20 09:43 40.79418 -8.99451 32998 ft 483 kts 98°
2026-04-20 09:43 40.78830 -8.90615 32987 ft 484 kts 98°
2026-04-20 09:44 40.78234 -8.81776 32978 ft 484 kts 98°
2026-04-20 09:44 40.77635 -8.72993 32979 ft 484 kts 98°
2026-04-20 09:45 40.77026 -8.64153 32970 ft 484 kts 98°
2026-04-20 09:45 40.76409 -8.55310 32982 ft 484 kts 98°
2026-04-20 09:46 40.75786 -8.46462 32979 ft 485 kts 99°
2026-04-20 09:46 40.75153 -8.37599 32993 ft 485 kts 99°
2026-04-20 09:47 40.74514 -8.28729 32995 ft 486 kts 99°
2026-04-20 09:47 40.73868 -8.19855 33002 ft 487 kts 99°
2026-04-20 09:48 40.73214 -8.10971 33005 ft 487 kts 99°
2026-04-20 09:48 40.72553 -8.02080 33000 ft 488 kts 99°
2026-04-20 09:49 40.71883 -7.93173 33007 ft 489 kts 99°
2026-04-20 09:49 40.71205 -7.84246 33002 ft 489 kts 99°
2026-04-20 09:50 40.70520 -7.75313 33002 ft 490 kts 99°
2026-04-20 09:50 40.69825 -7.66364 33000 ft 491 kts 99°
2026-04-20 09:51 40.69124 -7.57403 33002 ft 492 kts 99°
2026-04-20 09:51 40.68416 -7.48449 33011 ft 492 kts 99°
2026-04-20 09:52 40.67700 -7.39479 33007 ft 492 kts 99°
2026-04-20 09:52 40.66976 -7.30509 33005 ft 493 kts 99°
2026-04-20 09:53 40.66244 -7.21529 33001 ft 493 kts 99°
2026-04-20 09:53 40.65505 -7.12560 33000 ft 493 kts 99°
2026-04-20 09:54 40.64760 -7.03580 33025 ft 493 kts 99°
2026-04-20 09:54 40.64008 -6.94600 33004 ft 494 kts 99°
2026-04-20 09:55 40.63245 -6.85596 33009 ft 495 kts 99°
2026-04-20 09:55 40.62475 -6.76584 33015 ft 496 kts 99°
2026-04-20 09:56 40.61696 -6.67557 33015 ft 497 kts 99°
2026-04-20 09:56 40.60909 -6.58517 33012 ft 498 kts 99°
2026-04-20 09:57 40.60114 -6.49464 33013 ft 498 kts 99°
2026-04-20 09:57 40.59312 -6.40404 33009 ft 499 kts 99°
2026-04-20 09:58 40.58502 -6.31329 33010 ft 499 kts 99°
2026-04-20 09:58 40.57647 -6.22274 33014 ft 499 kts 100°
2026-04-20 09:59 40.56744 -6.13214 33006 ft 499 kts 100°
2026-04-20 09:59 40.55841 -6.04162 33018 ft 499 kts 100°
2026-04-20 10:00 40.54940 -5.95116 33020 ft 499 kts 100°
2026-04-20 10:00 40.54032 -5.86059 33028 ft 499 kts 100°
2026-04-20 10:01 40.53117 -5.77012 33033 ft 500 kts 100°
2026-04-20 10:01 40.52202 -5.67955 33019 ft 500 kts 100°
2026-04-20 10:02 40.51282 -5.58891 33028 ft 500 kts 100°
2026-04-20 10:02 40.50355 -5.49835 33046 ft 500 kts 100°
2026-04-20 10:03 40.49426 -5.40827 33040 ft 501 kts 100°
2026-04-20 10:03 40.48482 -5.31758 33037 ft 501 kts 100°
2026-04-20 10:04 40.47526 -5.22631 33043 ft 501 kts 100°
2026-04-20 10:04 40.46574 -5.13627 33044 ft 501 kts 100°
2026-04-20 10:05 40.45608 -5.04553 33035 ft 502 kts 100°
2026-04-20 10:05 40.44635 -4.95484 33036 ft 502 kts 100°
2026-04-20 10:06 40.43655 -4.86410 33040 ft 502 kts 100°
2026-04-20 10:06 40.42667 -4.77331 33027 ft 503 kts 100°
2026-04-20 10:07 40.41672 -4.68249 33024 ft 502 kts 100°
2026-04-20 10:07 40.40680 -4.59179 33022 ft 502 kts 100°
2026-04-20 10:08 40.39693 -4.50116 33003 ft 501 kts 100°
2026-04-20 10:08 40.38697 -4.41064 33017 ft 501 kts 100°
2026-04-20 10:09 40.37694 -4.32017 33017 ft 502 kts 100°
2026-04-20 10:09 40.36615 -4.22975 33016 ft 501 kts 104°
2026-04-20 10:10 40.35079 -4.14067 33024 ft 501 kts 105°
2026-04-20 10:10 40.33481 -4.05177 33032 ft 501 kts 105°
2026-04-20 10:11 40.31894 -3.96276 33036 ft 502 kts 104°
2026-04-20 10:11 40.30321 -3.87378 33042 ft 502 kts 104°
2026-04-20 10:12 40.28747 -3.78482 33051 ft 501 kts 104°
2026-04-20 10:12 40.27164 -3.69588 33046 ft 501 kts 104°
2026-04-20 10:13 40.25576 -3.60716 33050 ft 501 kts 104°
2026-04-20 10:13 40.23981 -3.51847 33042 ft 501 kts 104°
2026-04-20 10:14 40.22379 -3.42982 33030 ft 500 kts 104°
2026-04-20 10:14 40.20773 -3.34135 33026 ft 500 kts 105°
2026-04-20 10:15 40.19171 -3.25347 33036 ft 500 kts 105°
2026-04-20 10:15 40.17553 -3.16517 33024 ft 499 kts 105°
2026-04-20 10:16 40.15929 -3.07696 33038 ft 499 kts 105°
2026-04-20 10:16 40.14300 -2.98885 33033 ft 499 kts 105°
2026-04-20 10:17 40.12664 -2.90079 33018 ft 499 kts 104°
2026-04-20 10:17 40.11022 -2.81280 33035 ft 498 kts 105°
2026-04-20 10:18 40.09374 -2.72488 33035 ft 498 kts 105°
2026-04-20 10:18 40.07721 -2.63712 33034 ft 498 kts 105°
2026-04-20 10:19 40.06063 -2.54944 33041 ft 497 kts 105°
2026-04-20 10:19 40.04400 -2.46186 33037 ft 497 kts 105°
2026-04-20 10:20 40.02730 -2.37439 33044 ft 497 kts 105°
2026-04-20 10:20 40.01340 -2.30175 33037 ft 496 kts 105°
2026-04-20 10:21 39.99645 -2.21454 33053 ft 496 kts 107°
2026-04-20 10:21 39.97147 -2.13108 33031 ft 493 kts 119°
2026-04-20 10:22 39.93810 -2.05318 33052 ft 492 kts 121°
2026-04-20 10:22 39.90445 -1.97539 33048 ft 492 kts 121°
2026-04-20 10:23 39.87116 -1.89751 33045 ft 492 kts 120°
2026-04-20 10:23 39.83798 -1.81961 33048 ft 492 kts 120°
2026-04-20 10:24 39.80478 -1.74188 33051 ft 492 kts 120°
2026-04-20 10:24 39.77152 -1.66425 33057 ft 491 kts 120°
2026-04-20 10:25 39.73825 -1.58678 33048 ft 491 kts 120°
2026-04-20 10:25 39.70515 -1.50995 33038 ft 490 kts 120°
2026-04-20 10:26 39.67181 -1.43280 33032 ft 490 kts 120°
2026-04-20 10:26 39.63843 -1.35572 33028 ft 490 kts 120°
2026-04-20 10:27 39.60504 -1.27877 33019 ft 489 kts 120°
2026-04-20 10:27 39.57163 -1.20194 33029 ft 489 kts 120°
2026-04-20 10:28 39.53820 -1.12524 33027 ft 489 kts 120°
2026-04-20 10:28 39.50483 -1.04854 33026 ft 489 kts 120°
2026-04-20 10:29 39.47142 -0.97181 33019 ft 489 kts 120°
2026-04-20 10:29 39.43794 -0.89515 33016 ft 490 kts 120°
2026-04-20 10:30 39.40466 -0.81902 33009 ft 490 kts 120°
2026-04-20 10:30 39.37094 -0.74258 33007 ft 489 kts 120°
2026-04-20 10:31 39.33717 -0.66624 32997 ft 489 kts 120°
2026-04-20 10:31 39.30342 -0.59004 33004 ft 489 kts 120°
2026-04-20 10:32 39.27387 -0.51116 33002 ft 489 kts 109°
2026-04-20 10:32 39.25311 -0.42764 33003 ft 489 kts 107°
2026-04-20 10:33 39.23268 -0.34399 32996 ft 489 kts 108°
2026-04-20 10:33 39.21193 -0.26052 33003 ft 489 kts 108°
2026-04-20 10:34 39.19092 -0.17716 32998 ft 489 kts 108°
2026-04-20 10:35 39.15923 -0.05224 33013 ft 489 kts 108°
2026-04-20 10:35 39.13800 0.03112 33031 ft 492 kts 109°
2026-04-20 10:36 39.11645 0.11548 33020 ft 498 kts 109°
2026-04-20 10:36 39.09475 0.20016 33015 ft 498 kts 109°
2026-04-20 10:37 39.07316 0.28413 33015 ft 497 kts 109°
2026-04-20 10:37 39.05138 0.36854 33019 ft 496 kts 109°
2026-04-20 10:38 39.02958 0.45273 33020 ft 496 kts 109°
2026-04-20 10:38 39.00778 0.53667 33024 ft 495 kts 109°
2026-04-20 10:39 38.98592 0.62052 33027 ft 494 kts 109°
2026-04-20 10:39 38.96403 0.70421 33030 ft 494 kts 109°
2026-04-20 10:40 38.94208 0.78787 33031 ft 494 kts 109°
2026-04-20 10:40 38.92009 0.87139 33030 ft 494 kts 109°
2026-04-20 10:41 38.89800 0.95499 33035 ft 494 kts 109°
2026-04-20 10:41 38.87586 1.03852 33028 ft 495 kts 109°
2026-04-20 10:42 38.85365 1.12206 33023 ft 495 kts 109°
2026-04-20 10:42 38.83138 1.20551 33022 ft 495 kts 109°
2026-04-20 10:43 38.80902 1.28906 33021 ft 495 kts 110°
2026-04-20 10:43 38.78661 1.37250 33021 ft 495 kts 110°
2026-04-20 10:44 38.76414 1.45589 33020 ft 495 kts 110°
2026-04-20 10:44 38.74161 1.53926 33021 ft 495 kts 110°
2026-04-20 10:45 38.71916 1.62200 33023 ft 495 kts 110°
2026-04-20 10:45 38.69651 1.70527 33027 ft 495 kts 110°
2026-04-20 10:46 38.67381 1.78845 33032 ft 495 kts 110°
2026-04-20 10:46 38.65105 1.87156 33039 ft 495 kts 110°
2026-04-20 10:47 38.62822 1.95463 33042 ft 495 kts 110°
2026-04-20 10:47 38.60535 2.03764 33046 ft 495 kts 110°
2026-04-20 10:48 38.58241 2.12059 33047 ft 495 kts 110°
2026-04-20 10:48 38.55942 2.20348 33045 ft 495 kts 110°
2026-04-20 10:49 38.53637 2.28632 33047 ft 495 kts 110°
2026-04-20 10:49 38.51327 2.36908 33045 ft 495 kts 110°
2026-04-20 10:50 38.49009 2.45184 33049 ft 495 kts 110°
2026-04-20 10:50 38.46686 2.53454 33049 ft 495 kts 111°
2026-04-20 10:51 38.44357 2.61722 33049 ft 495 kts 111°
2026-04-20 10:51 38.42021 2.69984 33048 ft 495 kts 111°
2026-04-20 10:52 38.39682 2.78235 33051 ft 495 kts 111°
2026-04-20 10:52 38.37334 2.86487 33048 ft 495 kts 111°
2026-04-20 10:53 38.34980 2.94740 33045 ft 495 kts 111°
2026-04-20 10:53 38.32621 3.02981 33046 ft 495 kts 111°
2026-04-20 10:54 38.30255 3.11225 33045 ft 495 kts 111°
2026-04-20 10:54 38.27900 3.19403 33046 ft 495 kts 111°
2026-04-20 10:55 38.25523 3.27634 33046 ft 495 kts 111°
2026-04-20 10:55 38.23142 3.35854 33044 ft 495 kts 111°
2026-04-20 10:56 38.20746 3.44074 33047 ft 495 kts 112°
2026-04-20 10:56 38.18233 3.52221 33044 ft 495 kts 113°
2026-04-20 10:57 38.15671 3.60343 33043 ft 495 kts 113°
2026-04-20 10:57 38.13117 3.68460 33045 ft 495 kts 113°
2026-04-20 10:58 38.10570 3.76581 33043 ft 495 kts 112°
2026-04-20 10:58 38.08022 3.84695 33047 ft 495 kts 113°
2026-04-20 10:59 38.05469 3.92801 33050 ft 495 kts 113°
2026-04-20 10:59 38.02911 4.00899 33043 ft 495 kts 113°
2026-04-20 11:00 38.00345 4.08992 33046 ft 495 kts 113°
2026-04-20 11:00 37.97775 4.17081 33051 ft 495 kts 113°
2026-04-20 11:01 37.95198 4.25165 33043 ft 495 kts 113°
2026-04-20 11:01 37.92614 4.33248 33043 ft 495 kts 113°
2026-04-20 11:02 37.90043 4.41271 33040 ft 495 kts 113°
2026-04-20 11:02 37.87447 4.49344 33039 ft 495 kts 113°
2026-04-20 11:03 37.84845 4.57417 33042 ft 496 kts 113°
2026-04-20 11:03 37.82236 4.65489 33045 ft 496 kts 113°
2026-04-20 11:04 37.79620 4.73557 33044 ft 496 kts 113°
2026-04-20 11:04 37.77000 4.81620 33046 ft 496 kts 113°
2026-04-20 11:05 37.74373 4.89680 33034 ft 496 kts 113°
2026-04-20 11:05 37.71743 4.97729 33036 ft 496 kts 114°
2026-04-20 11:06 37.69182 5.05821 33042 ft 496 kts 111°
2026-04-20 11:06 37.66780 5.13987 33037 ft 496 kts 111°
2026-04-20 11:07 37.64385 5.22156 33036 ft 496 kts 111°
2026-04-20 11:07 37.61961 5.30310 33030 ft 496 kts 111°
2026-04-20 11:08 37.59517 5.38451 33030 ft 496 kts 111°
2026-04-20 11:08 37.57080 5.46535 33033 ft 496 kts 111°
2026-04-20 11:09 37.54624 5.54664 33031 ft 496 kts 111°
2026-04-20 11:09 37.52162 5.62793 33033 ft 497 kts 111°
2026-04-20 11:10 37.49694 5.70915 33031 ft 497 kts 111°
2026-04-20 11:10 37.47221 5.79035 33030 ft 497 kts 111°
2026-04-20 11:11 37.44740 5.87156 33030 ft 497 kts 111°
2026-04-20 11:11 37.42253 5.95271 33031 ft 497 kts 111°
2026-04-20 11:12 37.40163 6.02075 33031 ft 497 kts 111°
2026-04-20 11:12 37.37664 6.10184 33026 ft 498 kts 111°
2026-04-20 11:13 37.35158 6.18296 33027 ft 498 kts 111°
2026-04-20 11:13 37.32646 6.26405 33027 ft 498 kts 111°
2026-04-20 11:14 37.30146 6.34451 33029 ft 498 kts 111°
2026-04-20 11:14 37.27622 6.42550 33029 ft 498 kts 111°
2026-04-20 11:15 37.25093 6.50645 33027 ft 498 kts 112°
2026-04-20 11:15 37.22558 6.58732 33027 ft 498 kts 112°
2026-04-20 11:16 37.20019 6.66811 33027 ft 498 kts 112°
2026-04-20 11:16 37.17473 6.74889 33025 ft 498 kts 112°
2026-04-20 11:17 37.14924 6.82955 33027 ft 498 kts 112°
2026-04-20 11:17 37.12364 6.91031 33024 ft 498 kts 112°
2026-04-20 11:18 37.09801 6.99094 33024 ft 498 kts 112°
2026-04-20 11:18 37.07233 7.07154 33023 ft 498 kts 112°
2026-04-20 11:19 37.04658 7.15207 33023 ft 498 kts 112°
2026-04-20 11:19 37.02078 7.23259 33025 ft 498 kts 112°
2026-04-20 11:20 36.99490 7.31309 33028 ft 499 kts 112°
2026-04-20 11:20 36.96913 7.39305 33024 ft 499 kts 112°
2026-04-20 11:21 36.94295 7.47408 33026 ft 499 kts 112°
2026-04-20 11:21 36.91707 7.55395 33025 ft 499 kts 112°
2026-04-20 11:22 36.89097 7.63430 33027 ft 499 kts 112°
2026-04-20 11:22 36.86479 7.71466 33018 ft 499 kts 112°
2026-04-20 11:23 36.84137 7.79615 33011 ft 499 kts 103°
2026-04-20 11:23 36.83137 7.88162 33025 ft 498 kts 91°
2026-04-20 11:24 36.83181 7.96800 33024 ft 498 kts 88°
2026-04-20 11:24 36.83289 8.05441 33022 ft 498 kts 88°
2026-04-20 11:25 36.83346 8.14093 33032 ft 499 kts 89°
2026-04-20 11:25 36.83371 8.22747 33034 ft 499 kts 89°
2026-04-20 11:26 36.83386 8.31416 33035 ft 500 kts 89°
2026-04-20 11:26 36.83397 8.40090 33034 ft 500 kts 89°
2026-04-20 11:27 36.83404 8.48767 33039 ft 500 kts 89°
2026-04-20 11:27 36.83405 8.57458 33030 ft 501 kts 89°
2026-04-20 11:28 36.83401 8.66086 33032 ft 500 kts 89°
2026-04-20 11:28 36.83454 8.74770 33036 ft 500 kts 88°
2026-04-20 11:29 36.83533 8.83457 33031 ft 500 kts 88°
2026-04-20 11:29 36.83598 8.92146 33033 ft 500 kts 89°
2026-04-20 11:30 36.83649 9.00826 33036 ft 500 kts 89°
2026-04-20 11:30 36.83691 9.09498 33031 ft 500 kts 89°
2026-04-20 11:31 36.83728 9.18176 33029 ft 500 kts 89°
2026-04-20 11:31 36.83760 9.26843 33040 ft 500 kts 89°
2026-04-20 11:32 36.83785 9.35518 33042 ft 500 kts 89°
2026-04-20 11:32 36.83814 9.44202 33043 ft 500 kts 88°
2026-04-20 11:33 36.83963 9.52883 33033 ft 500 kts 88°
2026-04-20 11:33 36.84150 9.61560 33037 ft 500 kts 88°
2026-04-20 11:34 36.84315 9.70247 33045 ft 501 kts 88°
2026-04-20 11:34 36.84461 9.78941 33036 ft 501 kts 88°
2026-04-20 11:35 36.84598 9.87629 33042 ft 501 kts 88°
2026-04-20 11:35 36.84731 9.96327 33045 ft 501 kts 88°
2026-04-20 11:36 36.84857 10.05018 33048 ft 501 kts 88°
2026-04-20 11:36 36.84978 10.13713 33048 ft 501 kts 88°
2026-04-20 11:37 36.84946 10.22405 33047 ft 501 kts 94°
2026-04-20 11:37 36.83030 10.35198 33053 ft 500 kts 103°
2026-04-20 11:38 36.81466 10.43658 33050 ft 500 kts 103°
2026-04-20 11:38 36.79948 10.52135 33051 ft 500 kts 103°
2026-04-20 11:39 36.78441 10.60608 33059 ft 501 kts 103°
2026-04-20 11:39 36.76928 10.69029 33059 ft 501 kts 103°
2026-04-20 11:40 36.75385 10.77511 33060 ft 502 kts 103°
2026-04-20 11:40 36.73836 10.85995 33063 ft 502 kts 103°
2026-04-20 11:41 36.72285 10.94473 33074 ft 502 kts 103°
2026-04-20 11:41 36.70727 11.02953 33070 ft 502 kts 103°
2026-04-20 11:42 36.69167 11.11427 33077 ft 502 kts 103°
2026-04-20 11:42 36.67604 11.19896 33074 ft 502 kts 103°
2026-04-20 11:43 36.66036 11.28365 33077 ft 502 kts 103°
2026-04-20 11:43 36.64463 11.36824 33075 ft 502 kts 103°
2026-04-20 11:44 36.62884 11.45285 33072 ft 502 kts 103°
2026-04-20 11:44 36.60794 11.53551 33072 ft 500 kts 115°
2026-04-20 11:45 36.57824 11.61370 33083 ft 500 kts 116°
2026-04-20 11:45 36.54852 11.69197 33080 ft 500 kts 116°
2026-04-20 11:46 36.51944 11.76999 33080 ft 501 kts 116°
2026-04-20 11:46 36.49481 11.85091 33083 ft 502 kts 105°
2026-04-20 11:47 36.48040 11.93573 33090 ft 502 kts 101°
2026-04-20 11:47 36.46697 12.02091 33087 ft 503 kts 101°
2026-04-20 11:48 36.45313 12.10603 33087 ft 503 kts 102°
2026-04-20 11:48 36.43899 12.19110 33093 ft 503 kts 102°
2026-04-20 11:49 36.42471 12.27619 33089 ft 503 kts 102°
2026-04-20 11:49 36.41040 12.36122 33088 ft 503 kts 102°
2026-04-20 11:50 36.39605 12.44619 33091 ft 503 kts 102°
2026-04-20 11:50 36.38165 12.53111 33092 ft 503 kts 102°
2026-04-20 11:51 36.36719 12.61603 33093 ft 503 kts 102°
2026-04-20 11:51 36.35268 12.70080 33091 ft 503 kts 102°
2026-04-20 11:52 36.33810 12.78559 33094 ft 502 kts 102°
2026-04-20 11:52 36.32346 12.87035 33094 ft 502 kts 102°
2026-04-20 11:53 36.30878 12.95502 33093 ft 503 kts 102°
2026-04-20 11:53 36.29402 13.03973 33099 ft 503 kts 102°
2026-04-20 11:54 36.27921 13.12444 33102 ft 503 kts 102°
2026-04-20 11:54 36.26443 13.20908 33102 ft 503 kts 101°
2026-04-20 11:55 36.25375 13.29466 33105 ft 502 kts 98°
2026-04-20 11:55 36.24432 13.37987 33104 ft 503 kts 98°
2026-04-20 11:56 36.23467 13.46566 33105 ft 503 kts 98°
2026-04-20 11:56 36.22476 13.55141 33102 ft 503 kts 98°
2026-04-20 11:57 36.21470 13.63717 33103 ft 503 kts 98°
2026-04-20 11:57 36.20457 13.72291 33103 ft 503 kts 98°
2026-04-20 11:58 36.19440 13.80862 33104 ft 503 kts 98°
2026-04-20 11:58 36.18416 13.89438 33102 ft 503 kts 98°
2026-04-20 11:59 36.17386 13.98012 33100 ft 504 kts 98°
2026-04-20 11:59 36.16350 14.06583 33105 ft 504 kts 98°
2026-04-20 12:00 36.15308 14.15150 33102 ft 504 kts 98°
2026-04-20 12:00 36.14267 14.23666 33095 ft 504 kts 98°
2026-04-20 12:01 36.13211 14.32239 33097 ft 504 kts 98°
2026-04-20 12:01 36.12149 14.40816 33091 ft 505 kts 98°
2026-04-20 12:02 36.11254 14.48002 33099 ft 505 kts 98°
2026-04-20 12:02 36.10186 14.56533 33107 ft 505 kts 98°
2026-04-20 12:03 36.09105 14.65121 33096 ft 506 kts 98°
2026-04-20 12:03 36.08016 14.73714 33099 ft 506 kts 98°
2026-04-20 12:04 36.06921 14.82307 33087 ft 506 kts 98°
2026-04-20 12:04 36.05819 14.90899 33094 ft 506 kts 98°
2026-04-20 12:05 36.04712 14.99486 33105 ft 506 kts 98°
2026-04-20 12:05 36.03598 15.08078 33108 ft 506 kts 98°
2026-04-20 12:06 36.02477 15.16671 33097 ft 507 kts 98°
2026-04-20 12:06 36.01350 15.25263 33100 ft 507 kts 98°
2026-04-20 12:07 36.00215 15.33867 33099 ft 508 kts 98°
2026-04-20 12:07 35.99073 15.42473 33098 ft 508 kts 98°
2026-04-20 12:08 35.97924 15.51090 33108 ft 509 kts 98°
2026-04-20 12:08 35.96768 15.59712 33099 ft 509 kts 98°
2026-04-20 12:09 35.95680 15.68351 33105 ft 509 kts 97°
2026-04-20 12:09 35.94715 15.77014 33102 ft 510 kts 96°
2026-04-20 12:10 35.93752 15.85679 33109 ft 510 kts 97°
2026-04-20 12:10 35.92762 15.94347 33103 ft 510 kts 97°
2026-04-20 12:11 35.91754 16.03010 33106 ft 510 kts 97°
2026-04-20 12:11 35.90744 16.11620 33108 ft 511 kts 97°
2026-04-20 12:12 35.89722 16.20288 33109 ft 511 kts 97°
2026-04-20 12:12 35.88694 16.28959 33101 ft 511 kts 97°
2026-04-20 12:13 35.87660 16.37629 33108 ft 511 kts 97°
2026-04-20 12:13 35.86618 16.46310 33108 ft 512 kts 97°
2026-04-20 12:14 35.85569 16.54995 33105 ft 512 kts 97°
2026-04-20 12:14 35.84513 16.63677 33107 ft 513 kts 97°
2026-04-20 12:15 35.83451 16.72368 33106 ft 513 kts 97°
2026-04-20 12:15 35.82381 16.81060 33107 ft 513 kts 97°
2026-04-20 12:16 35.81304 16.89756 33111 ft 513 kts 97°
2026-04-20 12:16 35.80221 16.98450 33112 ft 514 kts 97°
2026-04-20 12:17 35.79132 17.07143 33111 ft 514 kts 97°
2026-04-20 12:17 35.78036 17.15839 33113 ft 514 kts 97°
2026-04-20 12:18 35.76933 17.24537 33108 ft 514 kts 97°
2026-04-20 12:18 35.75824 17.33229 33112 ft 514 kts 97°
2026-04-20 12:19 35.74708 17.41927 33113 ft 515 kts 97°
2026-04-20 12:19 35.73584 17.50628 33110 ft 515 kts 97°
2026-04-20 12:20 35.72454 17.59331 33110 ft 515 kts 97°
2026-04-20 12:20 35.71317 17.68037 33110 ft 515 kts 97°
2026-04-20 12:21 35.70182 17.76685 33117 ft 516 kts 97°
2026-04-20 12:21 35.69030 17.85402 33115 ft 516 kts 97°
2026-04-20 12:22 35.67872 17.94116 33114 ft 516 kts 97°
2026-04-20 12:22 35.66708 18.02827 33115 ft 516 kts 97°
2026-04-20 12:23 35.65537 18.11547 33113 ft 517 kts 97°
2026-04-20 12:23 35.64361 18.20258 33118 ft 517 kts 97°
2026-04-20 12:24 35.63236 18.28980 33114 ft 516 kts 94°
2026-04-20 12:24 35.62924 18.37754 33125 ft 513 kts 88°
2026-04-20 12:25 35.62812 18.46525 33113 ft 514 kts 88°
2026-04-20 12:25 35.62670 18.55309 33115 ft 514 kts 88°
2026-04-20 12:26 35.62490 18.64098 33121 ft 514 kts 89°
2026-04-20 12:26 35.62292 18.72885 33113 ft 515 kts 89°
2026-04-20 12:27 35.62089 18.81679 33118 ft 515 kts 89°
2026-04-20 12:27 35.61881 18.90474 33118 ft 515 kts 89°
2026-04-20 12:28 35.61668 18.99273 33116 ft 515 kts 89°
2026-04-20 12:28 35.61449 19.08082 33117 ft 516 kts 89°
2026-04-20 12:29 35.61223 19.16885 33121 ft 516 kts 89°
2026-04-20 12:29 35.60990 19.25698 33116 ft 516 kts 89°
2026-04-20 12:30 35.60750 19.34510 33118 ft 516 kts 89°
2026-04-20 12:30 35.60504 19.43331 33115 ft 516 kts 89°
2026-04-20 12:31 35.60252 19.52153 33115 ft 517 kts 89°
2026-04-20 12:31 35.59782 19.60903 33112 ft 519 kts 96°
2026-04-20 12:32 35.58593 19.69659 33119 ft 520 kts 97°
2026-04-20 12:32 35.57344 19.78409 33116 ft 520 kts 97°
2026-04-20 12:33 35.56322 19.85746 33117 ft 520 kts 97°
2026-04-20 12:33 35.55125 19.94512 33113 ft 521 kts 97°
2026-04-20 12:34 35.53939 20.03226 33116 ft 521 kts 97°
2026-04-20 12:34 35.52738 20.11997 33113 ft 521 kts 97°
2026-04-20 12:35 35.51530 20.20756 33113 ft 521 kts 97°
2026-04-20 12:35 35.50312 20.29526 33111 ft 521 kts 97°
2026-04-20 12:36 35.49085 20.38305 33115 ft 521 kts 97°
2026-04-20 12:36 35.47857 20.47055 33113 ft 521 kts 97°
2026-04-20 12:37 35.46618 20.55831 33113 ft 521 kts 97°
2026-04-20 12:37 35.45376 20.64580 33109 ft 521 kts 97°
2026-04-20 12:38 35.44126 20.73344 33110 ft 521 kts 97°
2026-04-20 12:38 35.42869 20.82103 33112 ft 522 kts 97°
2026-04-20 12:39 35.40972 20.95242 33114 ft 522 kts 97°
2026-04-20 12:40 35.39484 21.05470 33111 ft 522 kts 97°
2026-04-20 12:40 35.38204 21.14226 33112 ft 522 kts 97°
2026-04-20 12:41 35.36914 21.22994 33109 ft 522 kts 97°
2026-04-20 12:41 35.35628 21.31696 33108 ft 523 kts 97°
2026-04-20 12:42 35.34327 21.40449 33111 ft 523 kts 97°
2026-04-20 12:42 35.33019 21.49210 33108 ft 523 kts 97°
2026-04-20 12:43 35.31704 21.57972 33111 ft 523 kts 97°
2026-04-20 12:43 35.30382 21.66733 33109 ft 523 kts 97°
2026-04-20 12:44 35.29053 21.75494 33128 ft 525 kts 97°
2026-04-20 12:44 35.28383 21.79900 33366 ft 527 kts 97°
2026-04-20 12:44 35.27710 21.84306 33763 ft 525 kts 97°
2026-04-20 12:44 35.27039 21.88692 34176 ft 523 kts 97°
2026-04-20 12:45 35.26368 21.93059 34492 ft 523 kts 98°
2026-04-20 12:45 35.25696 21.97427 34750 ft 523 kts 98°
2026-04-20 12:45 35.25022 22.01802 34986 ft 524 kts 98°
2026-04-20 12:46 35.23660 22.10613 35101 ft 529 kts 98°
2026-04-20 12:46 35.22288 22.19424 35094 ft 524 kts 98°
2026-04-20 12:47 35.20925 22.28136 35108 ft 521 kts 98°
2026-04-20 12:47 35.19560 22.36828 35106 ft 520 kts 98°
2026-04-20 12:48 35.18184 22.45548 35118 ft 526 kts 98°
2026-04-20 12:48 35.16785 22.54365 35108 ft 530 kts 98°
2026-04-20 12:49 35.15374 22.63212 35102 ft 531 kts 99°
2026-04-20 12:49 35.14196 22.70565 35096 ft 530 kts 99°
2026-04-20 12:50 35.12776 22.79391 35100 ft 529 kts 99°
2026-04-20 12:50 35.11355 22.88187 35088 ft 527 kts 99°
2026-04-20 12:51 35.09931 22.96953 35091 ft 526 kts 99°
2026-04-20 12:51 35.08505 23.05696 35090 ft 525 kts 99°
2026-04-20 12:52 35.07074 23.14424 35102 ft 524 kts 99°
2026-04-20 12:52 35.05639 23.23140 35092 ft 524 kts 99°
2026-04-20 12:53 35.04196 23.31861 35094 ft 524 kts 99°
2026-04-20 12:53 35.02747 23.40579 35093 ft 525 kts 99°
2026-04-20 12:54 35.01289 23.49308 35091 ft 525 kts 100°
2026-04-20 12:54 34.99823 23.58042 35088 ft 526 kts 100°
2026-04-20 12:55 34.98349 23.66786 35076 ft 527 kts 100°
2026-04-20 12:55 34.96868 23.75535 35075 ft 527 kts 100°
2026-04-20 12:56 34.95379 23.84284 35074 ft 527 kts 100°
2026-04-20 12:56 34.93885 23.93025 35069 ft 527 kts 100°
2026-04-20 12:57 34.92384 24.01771 35072 ft 527 kts 100°